<- Previous Day | Today | Next Day ->

All Data for 23 January 2021

 

Time A - D Temp A - D Dew Point A - D Humidity A - D Pressure A - D Wind A - D Wind Dir Gust A - D Rain Rate A - D Rain Total
00:00 3.1 0.2 81 993.6 4.5 NE 5.4 0.0 0.0
00:01 3.1 0.2 81 993.6 5.4 NE 5.4 0.0 0.0
00:02 3.1 0.2 81 993.7 4.5 E 5.4 0.0 0.0
00:03 3.1 0.2 81 993.6 4.5 NE 5.4 0.0 0.0
00:04 3.1 0.2 81 993.5 3.8 NE 5.4 0.0 0.0
00:05 3.2 0.3 81 993.5 3.8 NE 5.4 0.0 0.0
00:06 3.2 0.3 81 993.7 3.1 NE 5.4 0.0 0.0
00:07 3.2 0.3 81 993.5 3.8 E 5.4 0.0 0.0
00:08 3.2 0.3 81 993.7 4.5 E 5.4 0.0 0.0
00:09 3.2 0.3 81 993.5 4.5 NE 5.4 0.0 0.0
00:11 3.2 0.3 81 993.6 3.1 E 4.5 0.0 0.0
00:12 3.3 0.4 81 993.6 3.1 NE 4.5 0.0 0.0
00:13 3.3 0.4 81 993.5 3.1 NE 4.5 0.0 0.0
00:14 3.3 0.4 81 993.7 2.2 NE 4.5 0.0 0.0
00:15 3.3 0.4 81 993.6 1.6 NE 4.5 0.0 0.0
00:16 3.3 0.4 81 993.6 1.6 NE 4.5 0.0 0.0
00:17 3.3 0.4 81 993.4 0.7 N 4.5 0.0 0.0
00:18 3.3 0.4 81 993.5 0.7 W 4.5 0.0 0.0
00:19 3.4 0.5 81 993.6 0.7 N 4.5 0.0 0.0
00:20 3.4 0.5 81 993.4 1.6 NE 3.8 0.0 0.0
00:21 3.4 0.5 81 993.7 1.6 N 3.8 0.0 0.0
00:22 3.4 0.5 81 993.6 1.6 N 3.1 0.0 0.0
00:23 3.4 0.5 81 993.6 2.2 NW 3.1 0.0 0.0
00:24 3.4 0.5 81 993.3 1.6 NE 2.2 0.0 0.0
00:26 3.4 0.5 81 993.4 2.2 NE 2.2 0.0 0.0
00:27 3.5 0.6 81 993.5 2.2 NE 2.2 0.0 0.0
00:28 3.5 0.6 81 993.5 3.1 NE 3.1 0.0 0.0
00:29 3.5 0.6 81 993.5 3.1 NE 3.1 0.0 0.0
00:30 3.5 0.6 81 993.3 3.8 NE 3.8 0.0 0.0
00:31 3.5 0.6 81 993.3 3.8 NE 3.8 0.0 0.0
00:32 3.5 0.6 81 993.3 3.8 NE 3.8 0.0 0.0
00:33 3.5 0.6 81 993.4 3.8 NE 3.8 0.0 0.0
00:34 3.6 0.6 81 993.5 3.8 NE 3.8 0.0 0.0
00:35 3.6 0.6 81 993.6 3.8 NE 3.8 0.0 0.0
00:36 3.6 0.6 81 993.3 3.8 E 3.8 0.0 0.0
00:37 3.6 0.6 81 993.3 4.5 NE 4.5 0.0 0.0
00:38 3.7 0.7 81 993.3 4.5 NE 4.5 0.0 0.0
00:39 3.7 0.7 81 993.3 3.8 NE 4.5 0.0 0.0
00:41 3.7 0.7 81 993.4 3.8 NE 4.5 0.0 0.0
00:42 3.7 0.7 81 993.2 3.8 NE 4.5 0.0 0.0
00:43 3.7 0.7 81 993.3 3.8 NE 4.5 0.0 0.0
00:44 3.8 0.8 81 993.0 3.8 NE 4.5 0.0 0.0
00:45 3.8 0.8 81 993.2 3.8 N 4.5 0.0 0.0
00:46 3.8 0.8 81 993.3 2.2 E 4.5 0.0 0.0
00:47 3.8 0.8 81 992.9 3.1 NE 4.5 0.0 0.0
00:48 3.8 0.8 81 993.0 3.1 E 4.5 0.0 0.0
00:49 3.8 0.8 81 992.9 3.1 NE 4.5 0.0 0.0
00:50 3.8 0.8 81 993.0 4.5 NE 4.5 0.0 0.0
00:51 3.8 0.8 81 993.1 4.5 NE 4.5 0.0 0.0
00:52 3.8 0.8 81 992.9 3.8 NE 4.5 0.0 0.0
00:53 3.8 0.8 81 992.9 4.5 NE 4.5 0.0 0.0
00:54 3.8 0.8 81 992.8 3.8 N 4.5 0.0 0.0
00:56 3.8 0.8 81 992.9 3.8 NE 4.5 0.0 0.0
00:57 3.8 0.8 81 992.8 2.2 N 4.5 0.0 0.0
00:58 3.8 0.8 81 992.7 3.1 NE 4.5 0.0 0.0
00:59 3.9 0.9 81 992.8 2.2 NE 4.5 0.0 0.0
01:00 3.9 0.9 81 992.7 2.2 NE 4.5 0.0 0.0
01:01 3.9 0.9 81 992.5 2.2 NE 4.5 0.0 0.0
01:02 3.9 0.9 81 992.5 2.2 NE 4.5 0.0 0.0
01:03 3.9 0.9 81 992.8 2.2 NE 4.5 0.0 0.0
01:04 3.9 0.9 81 992.5 2.2 NE 3.8 0.0 0.0
01:05 3.9 0.9 81 992.7 2.2 NE 3.8 0.0 0.0
01:06 3.9 0.9 81 992.5 2.2 NE 3.8 0.0 0.0
01:07 3.8 0.8 81 992.5 3.1 NE 3.1 0.0 0.0
01:08 3.8 0.8 81 992.5 2.2 NE 3.1 0.0 0.0
01:09 3.8 0.8 81 992.6 2.2 NE 3.1 0.0 0.0
01:11 3.8 0.8 81 992.7 2.2 NE 3.1 0.0 0.0
01:12 3.8 0.8 81 992.6 3.1 NE 3.1 0.0 0.0
01:13 3.8 0.8 81 992.4 3.1 NE 3.1 0.0 0.0
01:14 3.8 0.8 81 992.5 3.1 N 3.1 0.0 0.0
01:15 3.8 0.8 81 992.5 3.1 N 3.1 0.0 0.0
01:16 3.8 0.8 81 992.5 3.8 N 3.8 0.0 0.0
01:17 3.7 0.7 81 992.4 3.8 NE 3.8 0.0 0.0
01:18 3.7 0.7 81 992.5 3.8 N 3.8 0.0 0.0
01:19 3.7 0.7 81 992.4 5.4 NE 5.4 0.0 0.0
01:20 3.7 0.7 81 992.7 4.5 NE 5.4 0.0 0.0
01:21 3.7 0.7 81 992.4 4.5 N 5.4 0.0 0.0
01:22 3.7 0.7 81 992.4 4.5 NE 5.4 0.0 0.0
01:23 3.7 0.7 81 992.4 3.8 NE 5.4 0.0 0.0
01:24 3.7 0.7 81 992.5 3.8 NE 5.4 0.0 0.0
01:25 3.6 0.6 81 992.3 3.1 NE 5.4 0.0 0.0
01:26 3.6 0.6 81 992.2 3.8 NE 5.4 0.0 0.0
01:28 3.6 0.6 81 992.2 3.1 NE 5.4 0.0 0.0
01:29 3.6 0.6 81 992.4 2.2 N 4.5 0.0 0.0
01:30 3.5 0.6 81 992.1 3.1 NE 4.5 0.0 0.0
01:31 3.5 0.6 81 992.3 3.1 N 4.5 0.0 0.0
01:32 3.5 0.6 81 992.1 2.2 E 3.8 0.0 0.0
01:33 3.5 0.6 81 992.1 2.2 E 3.8 0.0 0.0
01:34 3.5 0.6 81 992.2 3.1 NE 3.8 0.0 0.0
01:35 3.5 0.6 81 992.2 2.2 NE 3.8 0.0 0.0
01:36 3.5 0.6 81 992.4 2.2 NE 3.8 0.0 0.0
01:37 3.5 0.6 81 992.3 2.2 N 3.1 0.0 0.0
01:38 3.5 0.6 81 992.2 3.1 NE 3.1 0.0 0.0
01:39 3.5 0.6 81 992.1 3.1 NE 3.1 0.0 0.0
01:40 3.5 0.6 81 992.2 3.1 E 3.1 0.0 0.0
01:41 3.5 0.6 81 992.1 2.2 NE 3.1 0.0 0.0
01:42 3.5 0.6 81 992.1 2.2 NE 3.1 0.0 0.0
01:43 3.5 0.6 81 992.2 2.2 NE 3.1 0.0 0.0
01:44 3.5 0.6 81 992.2 3.8 NE 3.8 0.0 0.0
01:45 3.4 0.5 81 992.3 1.6 NE 3.8 0.0 0.0
01:46 3.4 0.5 81 992.4 2.2 N 3.8 0.0 0.0
01:47 3.4 0.5 81 992.1 2.2 E 3.8 0.0 0.0
01:48 3.4 0.5 81 992.2 1.6 NE 3.8 0.0 0.0
01:49 3.4 0.5 81 992.1 1.6 NE 3.8 0.0 0.0
01:51 3.4 0.5 81 992.3 3.1 NW 3.8 0.0 0.0
01:52 3.4 0.5 81 992.2 2.2 E 3.8 0.0 0.0
01:53 3.4 0.5 81 992.3 2.2 NE 3.8 0.0 0.0
01:54 3.4 0.5 81 992.2 2.2 NE 3.1 0.0 0.0
01:55 3.4 0.5 81 992.3 2.2 NE 3.1 0.0 0.0
01:56 3.4 0.5 81 992.3 2.2 NE 3.1 0.0 0.0
01:57 3.4 0.5 81 992.1 3.1 E 3.1 0.0 0.0
01:58 3.4 0.5 81 992.1 2.2 NNE 3.1 0.0 0.0
01:59 3.5 0.6 81 992.3 3.1 E 3.1 0.0 0.0
02:00 3.5 0.6 81 992.1 2.2 NE 3.1 0.0 0.0
02:01 3.5 0.6 81 992.0 1.6 N 3.1 0.0 0.0
02:02 3.5 0.6 81 992.1 2.2 N 3.1 0.0 0.0
02:03 3.5 0.6 81 992.3 1.6 NW 3.1 0.0 0.0
02:05 3.5 0.6 81 992.0 2.2 NW 3.1 0.0 0.0
02:06 3.5 0.6 81 992.2 2.2 N 3.1 0.0 0.0
02:07 3.5 0.6 81 992.2 2.2 NE 3.1 0.0 0.0
02:08 3.5 0.6 81 992.3 2.2 N 3.1 0.0 0.0
02:09 3.5 0.6 81 992.3 3.1 N 3.1 0.0 0.0
02:10 3.5 0.6 81 992.2 3.1 NE 3.1 0.0 0.0
02:11 3.5 0.6 81 992.2 3.1 W 3.1 0.0 0.0
02:12 3.5 0.6 81 992.1 3.1 W 3.1 0.0 0.0
02:13 3.5 0.6 81 992.1 3.1 NW 3.1 0.0 0.0
02:14 3.5 0.6 81 992.3 3.1 N 3.1 0.0 0.0
02:15 3.4 0.5 81 992.1 3.1 N 3.1 0.0 0.0
02:16 3.4 0.5 81 992.1 2.2 NE 3.1 0.0 0.0
02:17 3.4 0.5 81 992.2 3.8 N 3.8 0.0 0.0
02:19 3.4 0.5 81 992.3 3.8 N 3.8 0.0 0.0
02:20 3.4 0.5 81 992.1 2.2 N 3.8 0.0 0.0
02:21 3.4 0.5 81 992.1 3.1 N 3.8 0.0 0.0
02:22 3.4 0.5 81 992.2 2.2 N 3.8 0.0 0.0
02:23 3.4 0.5 81 992.1 3.1 NW 3.8 0.0 0.0
02:24 3.4 0.5 81 992.1 3.1 NW 3.8 0.0 0.0
02:25 3.4 0.5 81 992.1 3.1 N 3.8 0.0 0.0
02:26 3.4 0.5 81 992.2 3.1 NE 3.8 0.0 0.0
02:27 3.4 0.5 81 992.2 3.1 N 3.8 0.0 0.0
02:28 3.4 0.5 81 992.0 3.1 NE 3.8 0.0 0.0
02:29 3.4 0.5 81 992.1 2.2 N 3.8 0.0 0.0
02:30 3.4 0.5 81 992.0 3.8 N 3.8 0.0 0.0
02:31 3.4 0.5 81 992.2 3.8 N 3.8 0.0 0.0
02:32 3.4 0.5 81 992.0 2.2 N 3.8 0.0 0.0
02:34 3.4 0.5 81 992.3 3.1 NNW 3.8 0.0 0.0
02:35 3.4 0.5 81 992.3 3.1 NE 3.8 0.0 0.0
02:36 3.4 0.5 81 992.0 3.1 NW 3.8 0.0 0.0
02:37 3.4 0.5 81 992.2 3.1 N 3.8 0.0 0.0
02:38 3.4 0.6 82 992.1 2.2 N 3.8 0.0 0.0
02:39 3.4 0.6 82 992.2 2.2 E 3.8 0.0 0.0
02:40 3.4 0.6 82 992.1 2.2 N 3.8 0.0 0.0
02:41 3.4 0.6 82 991.9 3.1 N 3.8 0.0 0.0
02:42 3.4 0.6 82 992.2 3.1 N 3.1 0.0 0.0
02:43 3.4 0.6 82 992.1 1.6 NW 3.1 0.0 0.0
02:44 3.4 0.6 82 992.0 2.2 NE 3.1 0.0 0.0
02:45 3.4 0.6 82 992.0 2.2 NE 3.1 0.0 0.0
02:46 3.4 0.6 82 992.1 2.2 NE 3.1 0.0 0.0
02:48 3.4 0.6 82 992.0 2.2 NE 3.8 0.0 0.0
02:49 3.4 0.6 82 992.2 2.2 NE 3.8 0.0 0.0
02:50 3.4 0.6 82 992.1 3.1 N 3.8 0.0 0.0
02:51 3.4 0.6 82 991.9 3.1 NE 3.8 0.0 0.0
02:52 3.4 0.6 82 991.9 3.1 NE 3.8 0.0 0.0
02:53 3.5 0.7 82 992.1 3.8 NE 3.8 0.0 0.0
02:54 3.5 0.7 82 992.1 3.8 NE 3.8 0.0 0.0
02:55 3.5 0.7 82 992.1 3.1 N 3.8 0.0 0.0
02:56 3.5 0.7 82 992.0 3.1 N 3.8 0.0 0.0
02:57 3.5 0.7 82 992.2 3.1 NE 3.8 0.0 0.0
02:58 3.5 0.7 82 992.0 3.1 NNE 3.8 0.0 0.0
02:59 3.5 0.7 82 991.9 3.1 NE 3.8 0.0 0.0
03:00 3.5 0.7 82 991.9 4.5 NNE 4.5 0.0 0.0
03:02 3.5 0.7 82 992.0 4.5 NNE 4.5 0.0 0.0
03:03 3.5 0.7 82 992.0 4.5 NNE 4.5 0.0 0.0
03:04 3.5 0.7 82 992.0 4.5 NNE 4.5 0.0 0.0
03:05 3.5 0.7 82 992.1 4.5 NNE 4.5 0.0 0.0
03:06 3.5 0.7 82 992.1 4.5 NNE 4.5 0.0 0.0
03:07 3.5 0.7 82 991.9 2.2 NE 4.5 0.0 0.0
03:08 3.5 0.7 82 991.9 4.5 NE 4.5 0.0 0.0
03:09 3.5 0.7 82 992.0 3.8 N 4.5 0.0 0.0
03:10 3.5 0.7 82 992.0 3.8 N 4.5 0.0 0.0
03:11 3.4 0.6 82 991.9 3.1 NE 4.5 0.0 0.0
03:12 3.4 0.6 82 992.2 3.1 NE 4.5 0.0 0.0
03:13 3.4 0.6 82 992.1 3.1 NE 4.5 0.0 0.0
03:14 3.4 0.6 82 992.1 3.1 NE 4.5 0.0 0.0
03:16 3.4 0.6 82 992.1 3.1 NE 4.5 0.0 0.0
03:17 3.4 0.6 82 992.0 2.2 N 4.5 0.0 0.0
03:18 3.4 0.6 82 992.1 2.2 NE 3.8 0.0 0.0
03:19 3.4 0.6 82 992.0 2.2 N 3.8 0.0 0.0
03:20 3.4 0.6 82 992.0 2.2 N 3.8 0.0 0.0
03:21 3.4 0.6 82 992.0 3.1 N 3.1 0.0 0.0
03:22 3.4 0.6 82 992.1 3.1 N 3.1 0.0 0.0
03:23 3.4 0.6 82 992.0 3.1 N 3.1 0.0 0.0
03:24 3.4 0.6 82 992.1 3.1 N 3.1 0.0 0.0
03:25 3.4 0.6 82 992.0 2.2 NW 3.1 0.0 0.0
03:26 3.4 0.6 82 992.0 2.2 N 3.1 0.0 0.0
03:27 3.4 0.6 82 992.3 2.2 NE 3.1 0.0 0.0
03:28 3.4 0.6 82 992.1 2.2 NE 3.1 0.0 0.0
03:30 3.4 0.6 82 992.0 1.6 NW 3.1 0.0 0.0
03:31 3.4 0.6 82 992.1 1.6 NW 3.1 0.0 0.0
03:32 3.4 0.6 82 992.2 3.8 N 3.8 0.0 0.0
03:33 3.4 0.6 82 992.2 3.8 NE 3.8 0.0 0.0
03:34 3.4 0.6 82 992.3 3.1 NW 3.8 0.0 0.0
03:35 3.4 0.6 82 992.3 3.1 NW 3.8 0.0 0.0
03:36 3.4 0.6 82 992.3 3.1 NW 3.8 0.0 0.0
03:37 3.4 0.6 82 992.2 3.8 N 3.8 0.0 0.0
03:38 3.4 0.6 82 992.3 3.8 E 3.8 0.0 0.0
03:39 3.4 0.6 82 992.2 3.8 NE 3.8 0.0 0.0
03:40 3.4 0.6 82 992.4 3.8 NE 3.8 0.0 0.0
03:41 3.4 0.6 82 992.1 4.5 NE 4.5 0.0 0.0
03:42 3.4 0.6 82 992.4 4.5 NE 4.5 0.0 0.0
03:44 3.3 0.5 82 992.3 4.5 NE 4.5 0.0 0.0
03:45 3.3 0.5 82 992.3 3.1 NE 4.5 0.0 0.0
03:46 3.3 0.5 82 992.5 2.2 N 4.5 0.0 0.0
03:47 3.3 0.5 82 992.3 3.1 N 4.5 0.0 0.0
03:48 3.3 0.5 82 992.2 3.1 NE 4.5 0.0 0.0
03:49 3.3 0.5 82 992.5 3.1 NE 4.5 0.0 0.0
03:50 3.3 0.5 82 992.3 3.1 E 4.5 0.0 0.0
03:51 3.3 0.5 82 992.3 3.1 N 4.5 0.0 0.0
03:52 3.3 0.5 82 992.5 4.5 NE 4.5 0.0 0.0
03:53 3.3 0.5 82 992.2 3.1 E 4.5 0.0 0.0
03:54 3.3 0.5 82 992.4 4.5 E 4.5 0.0 0.0
03:55 3.3 0.5 82 992.4 3.8 NE 4.5 0.0 0.0
03:56 3.3 0.5 82 992.3 4.5 N 4.5 0.0 0.0
03:58 3.3 0.5 82 992.3 4.5 NE 4.5 0.0 0.0
03:59 3.3 0.5 82 992.3 4.5 NE 4.5 0.0 0.0
04:00 3.3 0.5 82 992.5 4.5 NE 4.5 0.0 0.0
04:01 3.3 0.5 82 992.3 4.5 NE 4.5 0.0 0.0
04:02 3.3 0.5 82 992.4 3.1 NE 4.5 0.0 0.0
04:03 3.3 0.5 82 992.4 3.1 NE 4.5 0.0 0.0
04:04 3.3 0.5 82 992.3 4.5 NE 4.5 0.0 0.0
04:05 3.3 0.5 82 992.2 4.5 NE 4.5 0.0 0.0
04:06 3.3 0.5 82 992.2 4.5 NE 4.5 0.0 0.0
04:07 3.3 0.5 82 992.3 4.5 NE 4.5 0.0 0.0
04:08 3.3 0.5 82 992.1 3.1 NE 4.5 0.0 0.0
04:09 3.3 0.5 82 992.4 3.8 NE 4.5 0.0 0.0
04:10 3.3 0.5 82 992.4 3.1 N 4.5 0.0 0.0
04:12 3.3 0.5 82 992.5 3.8 NE 4.5 0.0 0.0
04:13 3.3 0.5 82 992.3 3.8 NE 4.5 0.0 0.0
04:14 3.3 0.5 82 992.3 3.8 NE 4.5 0.0 0.0
04:15 3.3 0.5 82 992.4 1.6 N 4.5 0.0 0.0
04:16 3.3 0.5 82 992.4 3.8 N 4.5 0.0 0.0
04:17 3.3 0.5 82 992.5 3.8 N 4.5 0.0 0.0
04:18 3.3 0.5 82 992.4 4.5 N 4.5 0.0 0.0
04:19 3.3 0.5 82 992.4 4.5 N 4.5 0.0 0.0
04:20 3.3 0.5 82 992.4 2.2 NE 4.5 0.0 0.0
04:21 3.3 0.5 82 992.4 2.2 NE 4.5 0.0 0.0
04:22 3.3 0.4 81 992.4 4.5 NE 4.5 0.0 0.0
04:23 3.3 0.4 81 992.4 4.5 NW 4.5 0.0 0.0
04:24 3.3 0.4 81 992.3 3.1 W 4.5 0.0 0.0
04:26 3.3 0.4 81 992.4 3.8 E 4.5 0.0 0.0
04:27 3.3 0.4 81 992.3 3.8 E 4.5 0.0 0.0
04:28 3.3 0.4 81 992.4 3.8 E 4.5 0.0 0.0
04:29 3.3 0.4 81 992.7 3.1 SE 4.5 0.0 0.0
04:30 3.3 0.4 81 992.5 3.1 N 4.5 0.0 0.0
04:31 3.3 0.4 81 992.5 3.1 N 4.5 0.0 0.0
04:32 3.3 0.4 81 992.5 2.2 NE 4.5 0.0 0.0
04:33 3.3 0.4 81 992.5 3.1 NE 4.5 0.0 0.0
04:34 3.3 0.4 81 992.4 4.5 NE 4.5 0.0 0.0
04:35 3.3 0.4 81 992.5 4.5 N 4.5 0.0 0.0
04:36 3.3 0.4 81 992.4 3.8 N 4.5 0.0 0.0
04:37 3.3 0.4 81 992.6 2.2 NW 4.5 0.0 0.0
04:38 3.3 0.4 81 992.6 5.4 WNW 5.4 0.0 0.0
04:40 3.3 0.4 81 992.5 3.8 W 5.4 0.0 0.0
04:41 3.3 0.4 81 992.6 3.1 N 5.4 0.0 0.0
04:42 3.3 0.4 81 992.7 3.8 NW 5.4 0.0 0.0
04:43 3.3 0.4 81 992.7 6.0 N 6.0 0.0 0.0
04:44 3.4 0.5 81 992.7 4.5 N 6.0 0.0 0.0
04:45 3.4 0.5 81 992.8 5.4 E 6.0 0.0 0.0
04:46 3.4 0.5 81 992.7 4.5 NW 6.0 0.0 0.0
04:47 3.4 0.5 81 992.6 4.5 NW 6.0 0.0 0.0
04:48 3.4 0.5 81 992.7 6.9 NE 6.9 0.0 0.0
04:49 3.4 0.5 81 992.7 5.4 W 6.9 0.0 0.0
04:50 3.4 0.5 81 992.5 4.5 NE 6.9 0.0 0.0
04:51 3.4 0.5 81 992.8 4.5 NE 6.9 0.0 0.0
04:52 3.4 0.5 81 992.7 4.5 NE 6.9 0.0 0.0
04:54 3.4 0.5 81 992.9 5.4 NE 6.9 0.0 0.0
04:55 3.4 0.5 81 992.8 3.1 NW 6.9 0.0 0.0
04:56 3.4 0.5 81 992.8 3.8 N 6.9 0.0 0.0
04:57 3.4 0.5 81 992.7 3.8 NW 6.9 0.0 0.0
04:58 3.4 0.5 81 992.6 5.4 N 5.4 0.0 0.0
04:59 3.4 0.5 81 992.6 5.4 N 5.4 0.0 0.0
05:00 3.4 0.5 81 993.0 5.4 N 5.4 0.0 0.0
05:01 3.4 0.5 81 992.9 5.4 N 5.4 0.0 0.0
05:02 3.4 0.5 81 992.8 5.4 N 5.4 0.0 0.0
05:03 3.4 0.5 81 993.0 5.4 N 5.4 0.0 0.0
05:04 3.4 0.5 81 993.0 5.4 N 5.4 0.0 0.0
05:05 3.4 0.5 81 992.6 5.4 N 5.4 0.0 0.0
05:06 3.4 0.5 81 992.9 5.4 N 5.4 0.0 0.0
05:07 3.5 0.6 81 992.9 3.8 N 5.4 0.0 0.0
05:09 3.5 0.6 81 992.8 3.8 NE 6.0 0.0 0.0
05:10 3.5 0.6 81 992.8 6.0 N 6.0 0.0 0.0
05:11 3.5 0.6 81 992.9 6.0 E 6.0 0.0 0.0
05:12 3.5 0.6 81 992.9 3.8 N 6.0 0.0 0.0
05:13 3.5 0.6 81 992.9 5.4 NW 6.0 0.0 0.0
05:14 3.6 0.6 81 992.9 5.4 N 6.0 0.0 0.0
05:15 3.6 0.6 81 992.7 5.4 N 6.0 0.0 0.0
05:16 3.6 0.6 81 992.9 5.4 N 6.0 0.0 0.0
05:17 3.6 0.6 81 993.0 5.4 N 6.0 0.0 0.0
05:18 3.7 0.7 81 992.9 5.4 N 6.0 0.0 0.0
05:19 3.7 0.7 81 992.8 5.4 N 6.0 0.0 0.0
05:20 3.7 0.7 81 993.0 6.0 N 6.0 0.0 0.0
05:21 3.7 0.7 81 993.1 5.4 N 6.0 0.0 0.0
05:23 3.7 0.7 81 993.1 5.4 N 6.0 0.0 0.0
05:24 3.8 0.8 81 992.8 4.5 NE 6.0 0.0 0.0
05:25 3.8 0.8 81 993.2 3.8 N 6.0 0.0 0.0
05:26 3.8 0.8 81 993.0 6.0 W 6.0 0.0 0.0
05:27 3.8 0.8 81 993.0 4.5 N 6.0 0.0 0.0
05:28 3.8 0.8 81 993.0 4.5 N 6.0 0.0 0.0
05:29 3.8 0.8 81 993.0 4.5 NW 6.0 0.0 0.0
05:30 3.8 0.8 81 993.1 3.1 N 6.0 0.0 0.0
05:31 3.8 0.8 81 993.0 6.0 N 6.0 0.0 0.0
05:32 3.8 0.8 81 993.1 3.1 W 6.0 0.0 0.0
05:33 3.8 0.8 81 993.0 6.0 N 6.0 0.0 0.0
05:34 3.9 0.9 81 992.9 4.5 SE 6.0 0.0 0.0
05:35 3.9 0.9 81 993.2 5.4 N 6.0 0.0 0.0
05:36 3.9 0.9 81 993.2 5.4 W 7.6 0.0 0.0
05:38 3.9 0.9 81 993.3 5.4 SW 7.6 0.0 0.0
05:39 3.9 0.9 81 993.4 6.0 NNE 7.6 0.0 0.0
05:40 3.9 0.9 81 993.1 6.0 N 7.6 0.0 0.0
05:41 3.9 0.9 81 993.1 9.2 N 9.2 0.0 0.0
05:42 4.0 1.0 81 993.0 6.0 NW 9.2 0.0 0.0
05:43 4.0 1.0 81 993.3 6.0 NW 9.2 0.0 0.0
05:44 4.0 1.0 81 993.2 7.6 E 9.2 0.0 0.0
05:45 4.0 1.0 81 993.3 4.5 N 9.2 0.0 0.0
05:46 4.0 1.0 81 993.3 4.5 NE 9.2 0.0 0.0
05:47 4.0 1.0 81 993.4 4.5 NW 9.2 0.0 0.0
05:48 4.0 1.0 81 993.2 4.5 NW 9.2 0.0 0.0
05:49 4.0 1.0 81 993.4 5.4 N 9.2 0.0 0.0
05:50 4.1 1.1 81 993.5 4.5 SW 9.2 0.0 0.0
05:52 4.1 1.1 81 993.4 5.4 NW 7.6 0.0 0.0
05:53 4.1 1.1 81 993.4 5.4 N 7.6 0.0 0.0
05:54 4.1 1.1 81 993.5 5.4 N 7.6 0.0 0.0
05:55 4.1 1.1 81 993.5 4.5 WNW 6.9 0.0 0.0
05:56 4.1 1.1 81 993.5 4.5 WNW 6.9 0.0 0.0
05:57 4.1 1.1 81 993.5 2.2 N 6.9 0.0 0.0
05:58 4.1 1.1 81 993.5 5.4 N 6.9 0.0 0.0
05:59 4.1 1.1 81 993.6 5.4 W 6.9 0.0 0.0
06:00 4.1 1.1 81 993.4 4.5 N 6.9 0.0 0.0
06:01 4.1 1.1 81 993.5 6.0 E 6.9 0.0 0.0
06:02 4.1 1.1 81 993.5 5.4 NW 6.0 0.0 0.0
06:03 4.1 1.1 81 993.6 5.4 N 6.0 0.0 0.0
06:04 4.1 1.1 81 993.6 3.1 NE 6.0 0.0 0.0
06:06 4.1 1.1 81 993.7 4.5 N 6.0 0.0 0.0
06:07 4.1 1.1 81 993.7 3.8 N 6.0 0.0 0.0
06:08 4.1 1.1 81 993.9 7.6 NW 7.6 0.0 0.0
06:09 4.1 1.1 81 993.6 7.6 NW 7.6 0.0 0.0
06:10 4.1 1.1 81 993.6 4.5 N 7.6 0.0 0.0
06:11 4.1 1.1 81 993.8 4.5 N 7.6 0.0 0.0
06:12 4.1 1.1 81 993.6 6.9 N 7.6 0.0 0.0
06:13 4.1 1.1 81 993.8 6.9 NE 7.6 0.0 0.0
06:14 4.1 1.1 81 993.8 3.1 NW 7.6 0.0 0.0
06:15 4.1 1.1 81 993.8 6.0 NE 7.6 0.0 0.0
06:16 4.0 1.0 81 993.9 4.5 NE 7.6 0.0 0.0
06:17 4.0 1.0 81 993.7 5.4 N 7.6 0.0 0.0
06:19 4.0 1.0 81 993.8 4.5 N 6.9 0.0 0.0
06:20 4.0 1.0 81 993.8 4.5 NE 6.9 0.0 0.0
06:21 4.0 1.0 81 993.8 3.1 NE 6.9 0.0 0.0
06:22 4.0 1.0 81 994.0 3.8 NNE 6.9 0.0 0.0
06:23 4.0 1.0 81 994.0 3.1 NW 6.9 0.0 0.0
06:24 4.0 1.0 81 994.0 3.1 NW 6.9 0.0 0.0
06:25 4.0 0.9 80 993.9 2.2 NE 6.9 0.0 0.0
06:26 4.0 0.9 80 993.9 4.5 N 6.9 0.0 0.0
06:27 4.0 0.9 80 993.9 8.3 N 8.3 0.0 0.0
06:28 4.0 0.9 80 993.8 8.3 NE 8.3 0.0 0.0
06:29 4.0 0.9 80 993.7 5.4 W 8.3 0.0 0.0
06:30 4.0 0.9 80 993.9 6.0 N 8.3 0.0 0.0
06:31 4.0 0.9 80 993.9 3.8 N 8.3 0.0 0.0
06:32 3.9 0.8 80 994.1 5.4 NW 8.3 0.0 0.0
06:34 3.9 0.8 80 994.2 5.4 N 8.3 0.0 0.0
06:35 3.9 0.8 80 994.1 5.4 SW 8.3 0.0 0.0
06:36 3.9 0.8 80 994.1 3.1 E 8.3 0.0 0.0
06:37 3.9 0.8 80 994.1 8.3 SE 8.3 0.0 0.0
06:38 3.9 0.8 80 994.1 8.3 NNE 8.3 0.0 0.0
06:39 3.9 0.8 80 994.1 6.9 N 8.3 0.0 0.0
06:40 3.9 0.8 80 994.3 6.0 N 8.3 0.0 0.0
06:41 3.9 0.8 80 994.2 6.9 N 8.3 0.0 0.0
06:42 3.9 0.8 80 994.2 6.9 N 8.3 0.0 0.0
06:43 3.9 0.8 80 994.2 6.9 NE 8.3 0.0 0.0
06:44 3.9 0.8 80 994.2 6.9 N 8.3 0.0 0.0
06:45 3.9 0.8 80 994.3 8.3 NE 8.3 0.0 0.0
06:48 4.0 0.7 79 994.3 9.2 N 10.7 0.0 0.0
06:49 4.0 0.7 79 994.2 11.4 NW 11.4 0.0 0.0
06:50 4.0 0.7 79 994.3 5.4 NW 11.4 0.0 0.0
06:51 4.0 0.7 79 994.3 8.3 N 11.4 0.0 0.0
06:52 4.0 0.7 79 994.3 8.3 N 11.4 0.0 0.0
06:53 4.0 0.5 78 994.2 9.2 NE 11.4 0.0 0.0
06:54 4.0 0.5 78 994.4 6.9 NW 11.4 0.0 0.0
06:55 4.0 0.5 78 994.4 4.5 NW 11.4 0.0 0.0
06:56 4.0 0.5 78 994.5 8.3 N 11.4 0.0 0.0
06:57 4.0 0.5 78 994.4 11.4 NW 11.4 0.0 0.0
06:58 4.0 0.5 78 994.4 7.6 N 11.4 0.0 0.0
06:59 4.0 0.5 78 994.4 10.7 NW 11.4 0.0 0.0
07:00 4.0 0.5 78 994.6 5.4 N 11.4 0.0 0.0
07:02 4.0 0.5 78 994.4 5.4 N 11.4 0.0 0.0
07:03 4.0 0.5 78 994.7 5.4 N 11.4 0.0 0.0
07:04 4.0 0.5 78 994.4 5.4 N 11.4 0.0 0.0
07:05 4.0 0.5 78 994.5 5.4 N 11.4 0.0 0.0
07:06 4.0 0.5 78 994.6 5.4 N 11.4 0.0 0.0
07:07 4.1 0.4 77 994.7 9.8 W 11.4 0.0 0.0
07:08 4.1 0.4 77 994.5 7.6 N 10.7 0.0 0.0
07:09 4.1 0.4 77 994.6 6.9 N 10.7 0.0 0.0
07:10 4.1 0.4 77 994.8 6.9 N 9.8 0.0 0.0
07:11 4.1 0.4 77 994.8 10.7 NW 10.7 0.0 0.0
07:12 4.1 0.4 77 994.6 7.6 NW 10.7 0.0 0.0
07:13 4.1 0.4 77 994.8 7.6 N 10.7 0.0 0.0
07:14 4.1 0.4 77 994.8 7.6 N 10.7 0.0 0.0
07:16 4.1 0.4 77 994.8 9.2 SW 10.7 0.0 0.0
07:17 4.1 0.4 77 994.8 6.0 N 10.7 0.0 0.0
07:18 4.1 0.4 77 994.9 6.0 NE 10.7 0.0 0.0
07:19 4.1 0.4 77 994.9 6.9 N 10.7 0.0 0.0
07:20 4.1 0.4 77 994.9 6.9 N 10.7 0.0 0.0
07:21 4.1 0.4 77 995.0 8.3 E 10.7 0.0 0.0
07:22 4.0 0.3 77 995.0 6.9 SW 10.7 0.0 0.0
07:23 4.0 0.3 77 994.9 6.9 NW 10.7 0.0 0.0
07:24 4.0 0.3 77 995.1 9.8 N 10.7 0.0 0.0
07:25 4.0 0.3 77 995.2 6.9 W 10.7 0.0 0.0
07:26 4.0 0.3 77 995.2 8.3 NE 9.8 0.0 0.0
07:27 4.0 0.3 77 995.2 9.2 NW 9.8 0.0 0.0
07:29 4.0 0.3 77 995.1 10.7 SW 10.7 0.0 0.0
07:30 4.0 0.3 77 995.3 8.3 N 10.7 0.0 0.0
07:31 4.0 0.3 77 995.4 6.0 NW 10.7 0.0 0.0
07:32 4.0 0.3 77 995.2 9.8 NE 10.7 0.0 0.0
07:33 4.0 0.3 77 995.3 8.3 NE 10.7 0.0 0.0
07:34 4.0 0.3 77 995.5 8.3 N 10.7 0.0 0.0
07:35 4.0 0.3 77 995.5 8.3 N 10.7 0.0 0.0
07:36 4.0 0.3 77 995.5 6.9 NW 10.7 0.0 0.0
07:37 4.0 0.3 77 995.5 9.8 N 10.7 0.0 0.0
07:38 4.0 0.3 77 995.5 9.8 N 10.7 0.0 0.0
07:39 4.0 0.3 77 995.5 6.9 W 10.7 0.0 0.0
07:40 4.0 0.3 77 995.7 5.4 NW 9.8 0.0 0.0
07:41 4.0 0.2 76 995.6 3.8 W 9.8 0.0 0.0
07:42 4.0 0.2 76 995.7 6.9 W 9.8 0.0 0.0
07:44 4.0 0.2 76 995.6 8.3 NW 9.8 0.0 0.0
07:45 4.0 0.2 76 995.7 6.0 E 9.8 0.0 0.0
07:46 3.9 0.1 76 995.6 4.5 NE 9.8 0.0 0.0
07:47 3.9 0.1 76 995.7 8.3 SW 9.8 0.0 0.0
07:48 3.9 0.1 76 995.7 8.3 SW 9.8 0.0 0.0
07:49 3.9 0.1 76 995.6 3.1 NW 8.3 0.0 0.0
07:50 3.9 0.1 76 995.5 3.8 SE 8.3 0.0 0.0
07:51 3.8 0.0 76 995.7 5.4 E 8.3 0.0 0.0
07:52 3.8 0.0 76 995.6 4.5 NE 8.3 0.0 0.0
07:53 3.8 0.0 76 995.7 6.9 W 8.3 0.0 0.0
07:54 3.8 0.0 76 995.7 9.2 N 9.2 0.0 0.0
07:55 3.8 0.0 76 995.7 6.0 NW 9.2 0.0 0.0
07:56 3.7 -0.1 76 995.5 5.4 NW 9.2 0.0 0.0
07:58 3.7 -0.3 75 995.7 4.5 NNE 9.2 0.0 0.0
07:59 3.7 -0.3 75 995.9 3.1 N 9.2 0.0 0.0
08:00 3.7 -0.3 75 995.7 3.1 N 9.2 0.0 0.0
08:01 3.7 -0.3 75 995.7 3.1 NW 9.2 0.0 0.0
08:02 3.7 -0.3 75 995.8 3.1 NW 9.2 0.0 0.0
08:03 3.7 -0.3 75 995.7 3.1 NW 9.2 0.0 0.0
08:04 3.7 -0.3 75 995.7 3.1 NW 9.2 0.0 0.0
08:05 3.6 -0.4 75 995.9 5.4 NW 6.0 0.0 0.0
08:06 3.6 -0.4 75 996.1 6.0 NE 6.0 0.0 0.0
08:07 3.6 -0.4 75 995.9 3.8 NW 6.0 0.0 0.0
08:08 3.6 -0.4 75 995.8 6.9 S 6.9 0.0 0.0
08:09 3.6 -0.4 75 995.8 4.5 N 6.9 0.0 0.0
08:10 3.5 -0.5 75 995.8 7.6 NW 10.7 0.0 0.0
08:12 3.5 -0.5 75 995.9 7.6 N 10.7 0.0 0.0
08:13 3.5 -0.5 75 996.1 7.6 N 10.7 0.0 0.0
08:14 3.5 -0.5 75 996.1 3.1 N 10.7 0.0 0.0
08:15 3.5 -0.5 75 996.1 7.6 NW 10.7 0.0 0.0
08:16 3.5 -0.5 75 996.1 7.6 NW 10.7 0.0 0.0
08:17 3.5 -0.5 75 996.2 3.1 WSW 10.7 0.0 0.0
08:18 3.5 -0.5 75 996.1 4.5 SW 10.7 0.0 0.0
08:19 3.5 -0.5 75 996.3 4.5 SSW 10.7 0.0 0.0
08:20 3.5 -0.5 75 996.1 3.8 N 10.7 0.0 0.0
08:21 3.5 -0.5 75 996.1 7.6 NW 7.6 0.0 0.0
08:22 3.5 -0.5 75 995.9 4.5 SW 7.6 0.0 0.0
08:23 3.5 -0.5 75 996.2 3.1 NW 7.6 0.0 0.0
08:24 3.5 -0.5 75 996.4 6.0 N 7.6 0.0 0.0
08:26 3.5 -0.5 75 996.2 5.4 NW 7.6 0.0 0.0
08:27 3.5 -0.5 75 996.3 5.4 NW 7.6 0.0 0.0
08:28 3.5 -0.5 75 996.2 3.1 N 7.6 0.0 0.0
08:29 3.5 -0.5 75 996.2 3.1 E 7.6 0.0 0.0
08:30 3.5 -0.5 75 996.3 4.5 ENE 7.6 0.0 0.0
08:31 3.5 -0.5 75 996.2 6.9 NE 7.6 0.0 0.0
08:32 3.4 -0.6 75 996.4 6.9 N 7.6 0.0 0.0
08:33 3.4 -0.6 75 996.3 3.8 SW 7.6 0.0 0.0
08:34 3.4 -0.6 75 996.4 3.1 N 7.6 0.0 0.0
08:35 3.4 -0.6 75 996.3 3.1 SW 7.6 0.0 0.0
08:36 3.4 -0.6 75 996.4 3.8 N 7.6 0.0 0.0
08:37 3.4 -0.6 75 996.5 6.0 W 6.9 0.0 0.0
08:38 3.4 -0.6 75 996.4 4.5 W 6.9 0.0 0.0
08:40 3.4 -0.6 75 996.6 4.5 NE 6.9 0.0 0.0
08:41 3.4 -0.6 75 996.5 6.9 N 6.9 0.0 0.0
08:42 3.4 -0.6 75 996.5 6.0 W 6.9 0.0 0.0
08:43 3.4 -0.6 75 996.6 2.2 NE 6.9 0.0 0.0
08:44 3.4 -0.6 75 996.6 2.2 NE 6.9 0.0 0.0
08:45 3.4 -0.6 75 996.7 5.4 N 6.9 0.0 0.0
08:46 3.4 -0.6 75 996.6 6.0 N 6.9 0.0 0.0
08:47 3.4 -0.6 75 996.7 2.2 N 6.9 0.0 0.0
08:48 3.4 -0.6 75 996.6 6.9 N 6.9 0.0 0.0
08:49 3.4 -0.6 75 996.6 5.4 N 6.9 0.0 0.0
08:50 3.4 -0.6 75 996.5 5.4 N 6.9 0.0 0.0
08:51 3.4 -0.6 75 996.7 4.5 NW 6.9 0.0 0.0
08:52 3.4 -0.6 75 996.9 7.6 N 7.6 0.0 0.0
08:54 3.5 -0.5 75 996.9 7.6 E 7.6 0.0 0.0
08:55 3.5 -0.5 75 996.9 4.5 SE 7.6 0.0 0.0
08:56 3.5 -0.5 75 996.8 4.5 N 7.6 0.0 0.0
08:57 3.5 -0.5 75 996.8 6.9 WNW 7.6 0.0 0.0
08:58 3.5 -0.5 75 996.7 4.5 N 7.6 0.0 0.0
08:59 3.5 -0.5 75 997.0 3.8 W 7.6 0.0 0.0
09:00 3.5 -0.5 75 996.8 5.4 N 7.6 0.0 0.0
09:01 3.5 -0.5 75 997.0 5.4 N 7.6 0.0 0.0
09:02 3.5 -0.5 75 996.8 5.4 N 7.6 0.0 0.0
09:03 3.5 -0.5 75 996.9 5.4 N 7.6 0.0 0.0
09:04 3.5 -0.5 75 996.7 5.4 N 7.6 0.0 0.0
09:05 3.5 -0.5 75 997.0 5.4 N 7.6 0.0 0.0
09:06 3.7 -0.3 75 996.8 6.9 E 6.9 0.0 0.0
09:08 3.7 -0.3 75 996.8 9.2 N 9.2 0.0 0.0
09:09 3.8 -0.2 75 996.9 9.2 NW 9.2 0.0 0.0
09:10 3.8 -0.2 75 997.1 5.4 SW 9.2 0.0 0.0
09:11 3.8 -0.2 75 997.0 5.4 NW 9.2 0.0 0.0
09:12 3.8 -0.2 75 997.0 5.4 NW 9.2 0.0 0.0
09:13 3.8 -0.2 75 996.8 5.4 N 9.2 0.0 0.0
09:14 3.9 -0.1 75 996.8 3.8 W 9.2 0.0 0.0
09:15 3.9 -0.1 75 997.0 3.1 W 9.2 0.0 0.0
09:16 4.0 0.0 75 997.0 4.5 NE 9.2 0.0 0.0
09:17 4.0 0.0 75 997.0 4.5 N 9.2 0.0 0.0
09:18 4.0 0.0 75 997.1 4.5 N 9.2 0.0 0.0
09:19 4.0 0.0 75 996.8 7.6 NW 9.2 0.0 0.0
09:20 4.1 0.1 75 997.0 4.5 NW 7.6 0.0 0.0
09:22 4.1 0.1 75 997.0 3.1 NW 7.6 0.0 0.0
09:23 4.2 0.0 74 996.9 6.0 N 7.6 0.0 0.0
09:24 4.2 0.0 74 997.0 6.9 N 7.6 0.0 0.0
09:25 4.2 0.0 74 997.0 8.3 N 8.3 0.0 0.0
09:26 4.2 0.0 74 997.0 6.0 NE 8.3 0.0 0.0
09:27 4.2 0.0 74 997.1 7.6 N 8.3 0.0 0.0
09:28 4.2 0.0 74 997.0 4.5 N 8.3 0.0 0.0
09:29 4.2 0.0 74 997.0 6.0 N 8.3 0.0 0.0
09:30 4.2 0.0 74 996.9 6.0 N 8.3 0.0 0.0
09:31 4.2 0.0 74 996.7 4.5 NW 8.3 0.0 0.0
09:32 4.2 0.0 74 997.0 6.9 N 8.3 0.0 0.0
09:33 4.2 -0.2 73 996.9 7.6 NE 8.3 0.0 0.0
09:34 4.2 -0.2 73 997.0 4.5 NW 8.3 0.0 0.0
09:36 4.2 -0.2 73 997.0 5.4 SW 8.3 0.0 0.0
09:37 4.2 -0.2 73 996.9 5.4 NW 8.3 0.0 0.0
09:38 4.2 -0.2 73 997.0 4.5 N 8.3 0.0 0.0
09:39 4.2 -0.2 73 997.1 8.3 SW 8.3 0.0 0.0
09:40 4.2 -0.2 73 997.1 8.3 SW 8.3 0.0 0.0
09:41 4.2 -0.4 72 997.0 10.7 W 10.7 0.0 0.0
09:42 4.2 -0.4 72 997.1 9.8 W 10.7 0.0 0.0
09:43 4.3 -0.3 72 997.1 9.8 N 10.7 0.0 0.0
09:44 4.3 -0.3 72 997.0 6.0 NNE 10.7 0.0 0.0
09:45 4.3 -0.3 72 997.1 6.0 E 10.7 0.0 0.0
09:46 4.3 -0.3 72 997.3 5.4 NE 10.7 0.0 0.0
09:47 4.3 -0.3 72 997.2 5.4 SE 10.7 0.0 0.0
09:50 4.5 -0.1 72 997.3 5.4 W 10.7 0.0 0.0
09:51 4.5 -0.1 72 997.3 4.5 N 9.8 0.0 0.0
09:52 4.5 -0.1 72 997.1 4.5 N 9.8 0.0 0.0
09:53 4.6 0.0 72 997.1 3.8 SW 6.9 0.0 0.0
09:54 4.8 0.2 72 997.3 3.8 NE 6.9 0.0 0.0
09:55 4.8 0.2 72 997.3 3.8 NE 6.9 0.0 0.0
09:56 4.8 0.2 72 997.1 4.5 W 6.9 0.0 0.0
09:57 4.9 0.5 73 997.4 6.0 SW 6.9 0.0 0.0
09:58 5.0 0.4 72 997.2 4.5 NE 6.9 0.0 0.0
09:59 5.0 0.4 72 997.0 5.4 W 6.9 0.0 0.0
10:00 5.0 0.4 72 997.2 5.4 W 6.0 0.0 0.0
10:01 5.1 0.5 72 997.2 11.4 N 11.4 0.0 0.0
10:02 5.1 0.5 72 997.2 6.0 S 11.4 0.0 0.0
10:04 5.2 0.4 71 997.1 3.8 NW 11.4 0.0 0.0
10:05 5.2 0.4 71 997.1 2.2 W 11.4 0.0 0.0
10:06 5.3 0.3 70 997.3 4.5 NNE 11.4 0.0 0.0
10:07 5.4 0.4 70 997.2 6.0 NW 11.4 0.0 0.0
10:08 5.5 0.5 70 997.2 6.0 SE 11.4 0.0 0.0
10:09 5.5 0.5 70 997.2 6.0 NW 11.4 0.0 0.0
10:10 5.5 0.5 70 997.2 3.8 N 11.4 0.0 0.0
10:11 5.6 0.6 70 997.3 5.4 NW 11.4 0.0 0.0
10:12 5.6 0.4 69 997.3 5.4 SW 11.4 0.0 0.0
10:13 5.6 0.4 69 997.2 6.0 W 6.0 0.0 0.0
10:14 5.6 0.2 68 997.3 6.9 W 6.9 0.0 0.0
10:15 5.7 0.3 68 997.3 8.3 NW 8.3 0.0 0.0
10:16 5.7 0.1 67 997.4 6.0 NW 8.3 0.0 0.0
10:18 5.7 -0.2 66 997.4 4.5 W 8.3 0.0 0.0
10:19 5.7 -0.2 66 997.5 4.5 NW 8.3 0.0 0.0
10:20 5.7 -0.2 66 997.2 5.4 W 8.3 0.0 0.0
10:21 5.7 -0.2 66 997.3 10.7 N 10.7 0.0 0.0
10:22 5.8 0.2 67 997.4 3.1 NE 10.7 0.0 0.0
10:23 5.8 0.2 67 997.4 3.1 NE 10.7 0.0 0.0
10:24 5.8 0.2 67 997.4 5.4 W 10.7 0.0 0.0
10:25 5.8 0.2 67 997.5 3.8 NE 10.7 0.0 0.0
10:26 5.9 0.2 67 997.6 5.4 NE 10.7 0.0 0.0
10:27 5.9 0.2 67 997.4 6.9 SW 10.7 0.0 0.0
10:28 6.0 0.3 67 997.3 6.0 W 10.7 0.0 0.0
10:29 6.0 0.3 67 997.4 6.9 N 10.7 0.0 0.0
10:30 6.2 0.7 68 997.5 4.5 NW 10.7 0.0 0.0
10:32 6.2 0.7 68 997.6 3.8 NE 8.3 0.0 0.0
10:33 6.3 0.6 67 997.7 4.5 N 8.3 0.0 0.0
10:34 6.4 0.7 67 997.9 6.0 N 8.3 0.0 0.0
10:35 6.4 0.5 66 997.8 6.9 NW 6.9 0.0 0.0
10:36 6.4 0.3 65 997.8 15.2 NW 15.2 0.0 0.0
10:37 6.4 0.1 64 997.8 8.3 NW 15.2 0.0 0.0
10:38 6.4 0.1 64 997.9 9.8 NW 15.2 0.0 0.0
10:39 6.4 0.1 64 997.7 9.8 NW 15.2 0.0 0.0
10:40 6.4 0.1 64 997.8 9.2 NW 15.2 0.0 0.0
10:41 6.4 0.1 64 997.8 9.8 NW 15.2 0.0 0.0
10:42 6.5 0.2 64 998.0 9.8 N 15.2 0.0 0.0
10:43 6.5 0.4 65 998.0 7.6 N 15.2 0.0 0.0
10:44 6.6 0.5 65 998.2 7.6 NW 15.2 0.0 0.0
10:46 6.6 0.5 65 998.1 7.6 N 15.2 0.0 0.0
10:47 6.5 0.4 65 998.1 6.0 NW 11.4 0.0 0.0
10:48 6.4 0.1 64 998.1 6.9 N 11.4 0.0 0.0
10:49 6.4 0.1 64 998.1 6.0 NW 11.4 0.0 0.0
10:50 6.3 -0.2 63 998.1 8.3 W 11.4 0.0 0.0
10:51 6.3 -0.2 63 998.1 8.3 W 11.4 0.0 0.0
10:52 6.2 -0.3 63 998.2 6.0 NW 11.4 0.0 0.0
10:53 6.2 -0.3 63 998.2 4.5 W 11.4 0.0 0.0
10:54 6.2 -0.3 63 998.3 8.3 SE 11.4 0.0 0.0
10:55 6.2 -0.3 63 998.0 9.2 W 11.4 0.0 0.0
10:56 6.2 -0.3 63 998.0 5.4 N 9.2 0.0 0.0
10:57 6.3 0.0 64 997.9 2.2 N 9.2 0.0 0.0
10:58 6.4 0.1 64 998.1 5.4 NW 9.2 0.0 0.0
10:59 6.5 0.2 64 998.0 6.9 NW 9.2 0.0 0.0
11:03 6.5 0.2 64 998.1 6.9 NW 9.2 0.0 0.0
11:04 6.5 0.2 64 997.9 6.9 NW 9.2 0.0 0.0
11:05 6.5 0.2 64 997.9 6.9 NW 9.2 0.0 0.0
11:06 6.7 -0.1 62 998.0 9.8 NE 9.8 0.0 0.0
11:07 6.7 -0.1 62 997.8 11.4 NE 11.4 0.0 0.0
11:09 6.8 0.3 63 998.0 6.9 NW 11.4 0.0 0.0
11:10 6.9 0.1 62 997.9 9.2 N 11.4 0.0 0.0
11:11 7.0 0.4 63 997.8 3.8 SW 11.4 0.0 0.0
11:12 7.0 0.4 63 997.9 6.9 E 11.4 0.0 0.0
11:14 7.1 0.5 63 998.2 8.3 N 11.4 0.0 0.0
11:15 7.1 0.5 63 997.9 9.2 W 11.4 0.0 0.0
11:16 7.1 0.5 63 997.9 6.9 NE 11.4 0.0 0.0
11:17 7.2 0.6 63 997.9 6.9 NW 11.4 0.0 0.0
11:18 7.2 0.6 63 998.0 8.3 N 11.4 0.0 0.0
11:19 7.2 0.4 62 997.8 8.3 N 11.4 0.0 0.0
11:20 7.3 0.7 63 998.0 9.8 NW 11.4 0.0 0.0
11:21 7.3 0.5 62 998.3 12.1 NW 12.1 0.0 0.0
11:22 7.3 0.5 62 998.0 12.1 NW 12.1 0.0 0.0
11:23 7.2 0.4 62 997.9 5.4 W 12.1 0.0 0.0
11:24 7.2 0.4 62 998.0 5.4 NW 12.1 0.0 0.0
11:25 7.1 0.3 62 998.0 10.7 N 12.1 0.0 0.0
11:28 7.0 0.2 62 998.2 9.8 NW 12.1 0.0 0.0
11:29 7.0 0.2 62 998.2 6.9 NW 12.1 0.0 0.0
11:30 7.0 0.2 62 998.2 8.3 N 12.1 0.0 0.0
11:31 7.0 0.4 63 998.1 7.6 N 12.1 0.0 0.0
11:32 7.0 0.4 63 998.1 7.6 N 12.1 0.0 0.0
11:33 7.1 0.5 63 998.2 6.0 W 10.7 0.0 0.0
11:34 7.2 0.6 63 998.2 8.3 NW 10.7 0.0 0.0
11:35 7.3 0.5 62 998.2 9.2 NE 10.7 0.0 0.0
11:36 7.3 0.5 62 998.2 6.9 NE 10.7 0.0 0.0
11:37 7.2 0.4 62 998.0 14.5 N 14.5 0.0 0.0
11:38 7.2 0.4 62 998.1 13.0 N 14.5 0.0 0.0
11:39 7.2 0.4 62 997.9 6.0 N 14.5 0.0 0.0
11:41 7.2 0.4 62 998.3 9.8 SW 14.5 0.0 0.0
11:42 7.2 0.2 61 998.2 5.4 W 14.5 0.0 0.0
11:43 7.3 0.3 61 998.0 4.5 E 14.5 0.0 0.0
11:44 7.3 0.3 61 998.2 13.0 E 14.5 0.0 0.0
11:45 7.3 0.3 61 998.0 9.2 N 14.5 0.0 0.0
11:46 7.3 0.3 61 998.2 6.9 W 14.5 0.0 0.0
11:47 7.4 0.1 60 998.1 6.9 N 14.5 0.0 0.0
11:48 7.4 0.1 60 998.1 8.3 W 13.6 0.0 0.0
11:49 7.4 0.4 61 998.0 10.7 N 13.6 0.0 0.0
11:50 7.4 0.1 60 998.3 10.7 N 13.0 0.0 0.0
11:51 7.4 0.1 60 998.3 9.8 NW 13.0 0.0 0.0
11:52 7.4 0.1 60 998.2 9.2 NE 13.0 0.0 0.0
11:53 7.4 0.1 60 998.3 7.6 N 13.0 0.0 0.0
11:54 7.5 -0.7 56 998.0 6.0 NW 13.0 0.0 0.0
11:55 7.5 -0.7 56 998.0 6.0 NW 10.7 0.0 0.0
11:56 7.6 -0.6 56 998.0 6.0 N 10.7 0.0 0.0
11:57 7.6 -0.9 55 997.9 11.4 W 11.4 0.0 0.0
11:58 7.6 -0.9 55 997.9 8.3 NW 11.4 0.0 0.0
11:59 7.6 -0.9 55 997.9 8.3 NW 11.4 0.0 0.0
12:00 7.6 -0.9 55 998.1 8.3 NW 11.4 0.0 0.0
12:02 7.7 -0.8 55 998.1 13.6 WSW 13.6 0.0 0.0
12:03 7.7 -0.5 56 997.9 5.4 NW 13.6 0.0 0.0
12:04 7.7 -0.5 56 997.9 5.4 NW 13.6 0.0 0.0
12:05 7.7 -0.8 55 998.0 9.8 N 13.6 0.0 0.0
12:06 7.8 -0.7 55 998.0 7.6 NW 13.6 0.0 0.0
12:07 7.8 -0.7 55 998.0 7.6 SW 13.6 0.0 0.0
12:08 7.8 -0.7 55 998.1 7.6 E 13.6 0.0 0.0
12:09 7.8 -0.7 55 998.1 7.6 W 13.6 0.0 0.0
12:10 7.9 -0.6 55 997.8 6.9 W 13.6 0.0 0.0
12:11 7.9 -0.6 55 998.0 8.3 NW 13.6 0.0 0.0
12:12 7.9 -0.6 55 998.0 10.7 NW 13.6 0.0 0.0
12:13 7.8 -0.9 54 998.2 8.3 W 13.6 0.0 0.0
12:14 7.8 -0.9 54 998.1 7.6 E 10.7 0.0 0.0
12:15 7.7 -1.0 54 998.0 6.9 NNE 10.7 0.0 0.0
12:16 7.5 -1.2 54 998.2 4.5 NW 10.7 0.0 0.0
12:18 7.3 -0.2 59 998.2 5.4 SE 10.7 0.0 0.0
12:19 7.3 0.1 60 998.1 4.5 SE 10.7 0.0 0.0
12:20 7.5 -1.2 54 998.3 5.4 N 10.7 0.0 0.0
12:21 7.6 -1.1 54 998.2 7.6 NE 10.7 0.0 0.0
12:22 7.7 -1.0 54 998.1 6.9 NW 9.8 0.0 0.0
12:23 7.7 -1.0 54 998.1 6.9 NW 9.8 0.0 0.0
12:24 7.8 -1.2 53 998.2 6.0 SE 9.8 0.0 0.0
12:25 7.8 -1.2 53 998.1 8.3 N 9.8 0.0 0.0
12:26 7.8 -1.4 52 998.2 7.6 SW 8.3 0.0 0.0
12:27 7.8 -1.2 53 998.1 7.6 NE 8.3 0.0 0.0
12:28 7.8 -1.4 52 998.2 6.9 W 8.3 0.0 0.0
12:29 7.9 -1.1 53 998.1 8.3 E 8.3 0.0 0.0
12:30 7.9 -1.1 53 998.2 9.2 NE 9.2 0.0 0.0
12:31 7.9 -1.1 53 998.2 6.0 NNW 9.2 0.0 0.0
12:33 8.0 -0.7 54 998.1 9.2 E 9.2 0.0 0.0
12:34 7.9 -1.1 53 998.2 10.7 SW 10.7 0.0 0.0
12:35 7.8 -1.2 53 998.1 8.3 SW 10.7 0.0 0.0
12:36 7.8 -1.2 53 998.1 6.9 E 10.7 0.0 0.0
12:37 7.7 -1.3 53 998.1 6.9 NW 10.7 0.0 0.0
12:38 7.8 -0.9 54 998.2 5.4 N 10.7 0.0 0.0
12:39 7.9 -0.6 55 998.2 6.9 N 10.7 0.0 0.0
12:40 7.9 -0.6 55 998.2 10.7 SW 10.7 0.0 0.0
12:41 8.0 -0.7 54 998.2 6.0 WNW 10.7 0.0 0.0
12:42 8.0 -0.7 54 998.1 7.6 NE 10.7 0.0 0.0
12:43 7.9 -0.8 54 998.2 9.8 S 10.7 0.0 0.0
12:44 7.9 -0.8 54 998.2 9.2 NW 10.7 0.0 0.0
12:45 7.9 -0.8 54 998.4 8.3 N 10.7 0.0 0.0
12:47 7.8 -0.9 54 998.2 6.9 N 10.7 0.0 0.0
12:48 7.9 -0.6 55 998.1 6.0 N 10.7 0.0 0.0
12:49 7.9 -0.8 54 998.1 6.9 W 10.7 0.0 0.0
12:50 8.0 -0.5 55 998.3 4.5 N 10.7 0.0 0.0
12:51 8.0 -0.5 55 998.3 4.5 N 9.8 0.0 0.0
12:52 8.1 -0.1 56 998.2 4.5 WNW 9.8 0.0 0.0
12:53 8.2 -0.3 55 998.1 10.7 W 10.7 0.0 0.0
12:54 8.1 -0.9 53 998.3 5.4 W 10.7 0.0 0.0
12:55 8.1 -0.9 53 998.1 6.9 NW 10.7 0.0 0.0
12:56 8.1 -1.2 52 998.2 6.9 NW 10.7 0.0 0.0
12:57 8.1 -1.2 52 998.1 7.6 WNW 10.7 0.0 0.0
12:58 8.1 -1.2 52 998.1 7.6 W 10.7 0.0 0.0
13:00 8.1 -1.2 52 998.1 7.6 NW 10.7 0.0 0.0
13:01 8.1 -1.2 52 998.1 7.6 NW 10.7 0.0 0.0
13:02 8.1 -1.2 52 998.0 7.6 NW 10.7 0.0 0.0
13:03 8.1 -1.2 52 998.0 7.6 NW 8.3 0.0 0.0
13:04 8.1 -1.2 52 998.1 7.6 NW 7.6 0.0 0.0
13:05 8.1 -1.2 52 998.0 7.6 NW 7.6 0.0 0.0
13:06 8.4 -0.9 52 998.0 8.3 NW 8.3 0.0 0.0
13:07 8.3 -1.2 51 998.1 8.3 NW 8.3 0.0 0.0
13:08 8.3 -1.2 51 998.2 6.0 N 8.3 0.0 0.0
13:09 8.2 -1.6 50 998.1 7.6 W 8.3 0.0 0.0
13:10 8.2 -1.3 51 998.1 7.6 NE 8.3 0.0 0.0
13:11 8.2 -1.3 51 997.8 4.5 N 8.3 0.0 0.0
13:12 8.2 -1.6 50 997.9 7.6 N 8.3 0.0 0.0
13:13 8.2 -1.3 51 998.0 7.6 W 8.3 0.0 0.0
13:14 8.2 -1.3 51 997.8 9.2 SW 9.2 0.0 0.0
13:15 8.1 -1.2 52 997.8 5.4 W 9.2 0.0 0.0
13:16 8.1 -1.2 52 998.0 5.4 N 9.2 0.0 0.0
13:17 8.2 -0.8 53 998.0 5.4 N 9.2 0.0 0.0
13:18 8.2 -0.8 53 998.1 5.4 W 9.2 0.0 0.0
13:19 8.3 -0.7 53 997.9 5.4 N 9.2 0.0 0.0
13:20 8.3 -0.7 53 998.1 5.4 N 9.2 0.0 0.0
13:21 8.3 -0.7 53 998.0 5.4 NW 9.2 0.0 0.0
13:22 8.4 -0.4 54 998.1 4.5 NW 9.2 0.0 0.0
13:23 8.4 -0.6 53 998.3 9.8 NW 9.8 0.0 0.0
13:25 8.3 -1.2 51 998.0 9.8 NW 9.8 0.0 0.0
13:26 8.2 -1.3 51 998.1 7.6 NW 9.8 0.0 0.0
13:27 8.2 -1.3 51 998.0 6.9 NE 9.8 0.0 0.0
13:28 8.2 -1.1 52 998.1 7.6 NW 9.8 0.0 0.0
13:29 8.2 -1.1 52 998.3 6.0 W 9.8 0.0 0.0
13:30 8.2 -1.1 52 998.2 6.0 W 9.8 0.0 0.0
13:31 8.2 -1.1 52 998.3 7.6 W 9.8 0.0 0.0
13:32 8.3 -1.0 52 998.1 6.0 NW 9.8 0.0 0.0
13:33 8.3 -1.0 52 998.2 9.2 W 9.8 0.0 0.0
13:34 8.2 -1.1 52 998.0 7.6 NW 9.8 0.0 0.0
13:35 8.1 -1.4 51 998.2 7.6 W 9.8 0.0 0.0
13:36 8.1 -1.4 51 998.1 7.6 W 9.2 0.0 0.0
13:37 7.9 -1.6 51 998.4 6.9 NW 9.2 0.0 0.0
13:39 7.9 -1.3 52 998.4 6.0 N 9.2 0.0 0.0
13:40 7.9 -1.6 51 998.3 5.4 N 9.2 0.0 0.0
13:41 7.9 -1.6 51 998.1 6.0 N 9.2 0.0 0.0
13:42 7.9 -1.6 51 998.2 9.2 W 9.2 0.0 0.0
13:43 7.8 -1.7 51 998.3 5.4 NW 9.2 0.0 0.0
13:44 7.8 -1.7 51 998.3 5.4 NW 9.2 0.0 0.0
13:45 7.7 -1.8 51 998.0 5.4 W 9.2 0.0 0.0
13:46 7.6 -1.9 51 998.3 5.4 NW 9.2 0.0 0.0
13:47 7.5 -2.0 51 998.2 4.5 W 9.2 0.0 0.0
13:48 7.4 -0.8 56 998.2 5.4 W 9.2 0.0 0.0
13:49 7.3 -1.1 55 998.3 8.3 SW 9.2 0.0 0.0
13:50 7.3 -1.1 55 998.2 7.6 NW 9.2 0.0 0.0
13:51 7.3 -1.1 55 998.3 6.9 WNW 9.2 0.0 0.0
13:53 7.3 -0.9 56 998.2 4.5 NW 8.3 0.0 0.0
13:54 7.3 -0.9 56 998.2 7.6 W 8.3 0.0 0.0
13:55 7.5 -1.5 53 998.3 3.1 SW 8.3 0.0 0.0
13:56 7.6 -1.4 53 998.4 3.8 N 8.3 0.0 0.0
13:57 7.6 -1.4 53 998.4 7.6 W 8.3 0.0 0.0
13:58 7.6 -1.4 53 998.4 7.6 W 8.3 0.0 0.0
13:59 7.6 -1.4 53 998.4 7.6 NW 8.3 0.0 0.0
14:00 7.6 -1.4 53 998.3 7.6 SW 7.6 0.0 0.0
14:01 7.6 -1.4 53 998.4 7.6 SW 7.6 0.0 0.0
14:02 7.6 -1.4 53 998.3 7.6 SW 7.6 0.0 0.0
14:03 7.6 -1.4 53 998.2 7.6 SW 7.6 0.0 0.0
14:04 7.6 -1.4 53 998.2 7.6 SW 7.6 0.0 0.0
14:05 7.6 -1.4 53 998.3 7.6 SW 7.6 0.0 0.0
14:06 7.5 -1.5 53 998.4 5.4 SW 7.6 0.0 0.0
14:08 7.5 -1.2 54 998.1 3.1 W 7.6 0.0 0.0
14:09 7.6 -0.6 56 998.5 5.4 W 7.6 0.0 0.0
14:10 7.6 -0.9 55 998.3 5.4 WSW 7.6 0.0 0.0
14:11 7.6 -0.6 56 998.2 3.8 NW 7.6 0.0 0.0
14:12 7.6 -0.6 56 998.2 3.8 NW 7.6 0.0 0.0
14:13 7.6 -0.9 55 998.4 5.4 NW 7.6 0.0 0.0
14:14 7.6 -1.1 54 998.3 4.5 W 7.6 0.0 0.0
14:15 7.7 -1.0 54 998.2 4.5 NE 7.6 0.0 0.0
14:16 7.7 -1.3 53 998.3 3.8 W 6.9 0.0 0.0
14:17 7.9 -0.8 54 998.3 3.8 W 5.4 0.0 0.0
14:18 8.0 -0.5 55 998.1 2.2 W 5.4 0.0 0.0
14:19 8.2 -0.1 56 998.3 2.2 W 5.4 0.0 0.0
14:20 8.2 -0.3 55 998.3 4.5 NW 5.4 0.0 0.0
14:21 8.2 -0.6 54 998.3 2.2 SE 5.4 0.0 0.0
14:22 8.3 -0.5 54 998.2 5.4 NW 5.4 0.0 0.0
14:23 8.3 -0.2 55 998.1 5.4 N 5.4 0.0 0.0
14:24 8.4 -0.4 54 998.2 1.6 NW 5.4 0.0 0.0
14:25 8.4 -0.4 54 998.2 3.8 N 5.4 0.0 0.0
14:26 8.3 -0.7 53 998.1 7.6 N 7.6 0.0 0.0
14:27 8.2 -0.8 53 998.1 5.4 NW 7.6 0.0 0.0
14:28 8.2 -0.8 53 998.1 5.4 NW 7.6 0.0 0.0
14:29 8.1 -1.2 52 998.2 6.9 W 7.6 0.0 0.0
14:30 8.1 -1.2 52 998.2 6.9 W 7.6 0.0 0.0
14:31 7.8 -1.7 51 998.2 6.9 NW 7.6 0.0 0.0
14:32 7.7 -1.8 51 998.3 4.5 NW 7.6 0.0 0.0
14:33 7.6 -1.9 51 998.2 5.4 SW 7.6 0.0 0.0
14:34 7.4 -0.8 56 998.1 4.5 NW 7.6 0.0 0.0
14:35 7.3 -0.9 56 998.3 2.2 W 7.6 0.0 0.0
14:36 7.3 -0.9 56 998.2 2.2 W 7.6 0.0 0.0
14:37 7.1 -0.8 57 998.3 4.5 W 7.6 0.0 0.0
14:38 7.0 -0.7 58 998.1 4.5 W 6.9 0.0 0.0
14:39 7.0 -0.7 58 998.3 3.8 N 6.9 0.0 0.0
14:40 6.9 -0.6 59 998.4 2.2 NW 6.9 0.0 0.0
14:41 6.9 -0.3 60 998.3 4.5 W 6.9 0.0 0.0
14:42 6.9 -0.3 60 998.2 6.0 W 6.0 0.0 0.0
14:43 6.8 -0.4 60 998.3 6.0 NW 6.0 0.0 0.0
14:44 6.7 -0.5 60 998.2 3.8 N 6.0 0.0 0.0
14:46 6.7 -0.7 59 998.1 6.0 NW 6.0 0.0 0.0
14:47 6.7 -0.7 59 998.3 4.5 NW 6.0 0.0 0.0
14:48 6.7 -0.7 59 998.3 4.5 W 6.0 0.0 0.0
14:49 6.8 -0.6 59 998.1 4.5 NE 6.0 0.0 0.0
14:50 7.0 -0.2 60 998.2 2.2 NW 6.0 0.0 0.0
14:51 7.0 -0.2 60 998.2 2.2 NW 6.0 0.0 0.0
14:52 7.0 -0.2 60 998.1 3.8 NW 6.0 0.0 0.0
14:53 7.1 -0.1 60 998.1 4.5 W 6.0 0.0 0.0
14:54 7.2 -0.3 59 998.3 4.5 W 6.0 0.0 0.0
14:55 7.2 -0.5 58 998.3 4.5 NW 6.0 0.0 0.0
14:56 7.3 -0.4 58 998.2 3.1 NW 6.0 0.0 0.0
14:57 7.4 -0.3 58 998.3 3.1 N 6.0 0.0 0.0
14:58 7.5 -1.5 53 998.2 3.8 W 4.5 0.0 0.0
14:59 7.6 -1.6 52 998.3 3.1 W 4.5 0.0 0.0
15:01 7.6 -1.6 52 998.2 3.1 W 4.5 0.0 0.0
15:02 7.6 -1.6 52 998.2 3.8 W 4.5 0.0 0.0
15:03 7.6 -1.6 52 998.3 3.8 W 4.5 0.0 0.0
15:04 7.6 -1.6 52 998.5 3.8 W 4.5 0.0 0.0
15:05 7.6 -1.6 52 998.3 3.8 W 3.8 0.0 0.0
15:06 7.5 -1.5 53 998.2 3.8 NW 3.8 0.0 0.0
15:07 7.5 -1.5 53 998.0 4.5 W 4.5 0.0 0.0
15:08 7.5 -1.7 52 998.2 4.5 W 4.5 0.0 0.0
15:09 7.4 -0.6 57 998.1 3.1 W 4.5 0.0 0.0
15:10 7.4 -0.6 57 998.0 3.1 W 4.5 0.0 0.0
15:11 7.5 -1.7 52 998.2 4.5 NW 4.5 0.0 0.0
15:12 7.5 -1.7 52 998.0 5.4 NE 5.4 0.0 0.0
15:13 7.5 -1.7 52 998.1 3.8 N 5.4 0.0 0.0
15:14 7.5 -1.7 52 998.2 4.5 N 5.4 0.0 0.0
15:15 7.5 -1.7 52 998.0 3.8 NW 5.4 0.0 0.0
15:16 7.5 -1.7 52 998.2 3.8 N 5.4 0.0 0.0
15:17 7.4 -0.6 57 998.1 2.2 N 5.4 0.0 0.0
15:18 7.3 -0.7 57 998.2 3.8 NW 5.4 0.0 0.0
15:19 7.2 -0.7 57 998.0 3.1 W 5.4 0.0 0.0
15:21 7.1 -0.8 57 998.1 2.2 NW 5.4 0.0 0.0
15:22 7.0 -0.7 58 998.1 4.5 N 4.5 0.0 0.0
15:23 6.9 -0.8 58 998.3 4.5 NW 4.5 0.0 0.0
15:24 6.9 -0.6 59 998.1 5.4 NW 5.4 0.0 0.0
15:25 6.8 -0.6 59 998.1 5.4 NW 5.4 0.0 0.0
15:26 6.8 -0.6 59 998.2 4.5 NW 5.4 0.0 0.0
15:27 6.7 -0.7 59 998.2 4.5 NW 5.4 0.0 0.0
15:28 6.7 -0.7 59 998.1 4.5 W 5.4 0.0 0.0
15:29 6.5 -1.2 58 998.2 3.8 NW 5.4 0.0 0.0
15:30 6.5 -1.2 58 998.3 3.8 N 5.4 0.0 0.0
15:31 6.4 -1.3 58 998.1 4.5 NW 5.4 0.0 0.0
15:32 6.3 -1.1 59 998.2 1.6 W 5.4 0.0 0.0
15:33 6.3 -1.1 59 998.1 2.2 W 5.4 0.0 0.0
15:34 6.2 -1.0 60 998.2 3.8 NW 5.4 0.0 0.0
15:36 6.2 -1.0 60 998.2 3.8 NW 4.5 0.0 0.0
15:37 6.3 -0.9 60 998.2 2.2 W 4.5 0.0 0.0
15:38 6.3 -0.9 60 998.2 2.2 W 4.5 0.0 0.0
15:39 6.3 -0.9 60 998.2 3.1 W 4.5 0.0 0.0
15:40 6.3 -0.9 60 998.2 3.8 NW 4.5 0.0 0.0
15:41 6.2 -1.0 60 998.2 3.8 NW 4.5 0.0 0.0
15:42 6.2 -1.0 60 998.0 3.8 NW 3.8 0.0 0.0
15:43 6.2 -1.0 60 998.1 3.1 W 3.8 0.0 0.0
15:44 6.2 -1.0 60 998.2 3.1 W 3.8 0.0 0.0
15:45 6.1 -1.1 60 998.0 2.2 NW 3.8 0.0 0.0
15:46 6.1 -1.1 60 998.2 2.2 NW 3.8 0.0 0.0
15:47 6.1 -1.1 60 998.3 0.7 W 3.8 0.0 0.0
15:48 6.0 -1.2 60 998.2 1.6 NW 3.8 0.0 0.0
15:49 6.0 -1.2 60 998.2 1.6 NW 3.8 0.0 0.0
15:51 6.0 -1.2 60 998.1 1.6 NW 3.8 0.0 0.0
15:52 5.9 -1.3 60 998.2 1.6 NW 3.1 0.0 0.0
15:53 5.9 -1.3 60 998.1 1.6 W 3.1 0.0 0.0
15:54 5.9 -1.3 60 998.1 1.6 N 3.1 0.0 0.0
15:55 5.9 -1.3 60 998.1 1.6 N 2.2 0.0 0.0
15:56 5.9 -1.3 60 998.1 2.2 W 2.2 0.0 0.0
15:57 5.9 -1.3 60 998.1 1.6 NW 2.2 0.0 0.0
15:58 5.9 -1.3 60 998.0 2.2 NW 2.2 0.0 0.0
15:59 5.9 -1.3 60 998.1 2.2 NW 2.2 0.0 0.0
16:00 6.0 -1.2 60 998.2 2.2 NW 2.2 0.0 0.0
16:01 6.0 -1.2 60 998.2 2.2 NW 2.2 0.0 0.0
16:02 6.0 -1.2 60 998.1 2.2 NW 2.2 0.0 0.0
16:03 5.8 -1.4 60 998.2 1.6 W 2.2 0.0 0.0
16:04 5.8 -1.4 60 998.3 1.6 NW 2.2 0.0 0.0
16:06 5.8 -1.4 60 998.3 2.2 NW 2.2 0.0 0.0
16:07 5.8 -1.4 60 998.2 2.2 NW 2.2 0.0 0.0
16:08 5.8 -1.1 61 998.2 2.2 NW 2.2 0.0 0.0
16:09 5.8 -1.1 61 998.2 1.6 NW 2.2 0.0 0.0
16:10 5.8 -1.1 61 998.0 1.6 NW 2.2 0.0 0.0
16:11 5.8 -1.1 61 998.0 0.7 NW 2.2 0.0 0.0
16:12 5.8 -1.1 61 998.0 0.7 NW 2.2 0.0 0.0
16:13 5.8 -1.1 61 998.3 0.7 NW 2.2 0.0 0.0
16:14 5.8 -1.1 61 998.2 1.6 N 2.2 0.0 0.0
16:15 5.8 -1.1 61 998.0 0.7 NW 2.2 0.0 0.0
16:16 5.8 -1.1 61 998.2 2.2 NW 2.2 0.0 0.0
16:17 5.8 -1.1 61 998.1 1.6 NW 2.2 0.0 0.0
16:18 5.8 -1.1 61 998.0 1.6 NW 2.2 0.0 0.0
16:19 5.8 -1.1 61 998.2 0.7 W 2.2 0.0 0.0
16:20 5.8 -1.1 61 998.2 0.7 NW 2.2 0.0 0.0
16:21 5.7 -1.2 61 998.1 0.7 NW 2.2 0.0 0.0
16:22 5.7 -1.2 61 998.1 0.7 NW 2.2 0.0 0.0
16:24 5.6 -1.3 61 998.3 0.7 NW 2.2 0.0 0.0
16:25 5.6 -1.3 61 998.4 0.7 NW 2.2 0.0 0.0
16:26 5.6 -1.3 61 998.3 0.0 NW 2.2 0.0 0.0
16:27 5.6 -1.3 61 998.0 0.7 NW 1.6 0.0 0.0
16:28 5.6 -1.3 61 998.0 0.7 NW 1.6 0.0 0.0
16:29 5.5 -1.4 61 998.0 0.0 NW 0.7 0.0 0.0
16:30 5.5 -1.4 61 998.1 0.7 NW 0.7 0.0 0.0
16:31 5.4 -1.5 61 998.2 0.7 NW 0.7 0.0 0.0
16:32 5.4 -1.5 61 998.3 0.7 W 0.7 0.0 0.0
16:33 5.4 -1.5 61 998.3 0.0 NW 0.7 0.0 0.0
16:34 5.3 -1.6 61 998.5 0.7 NW 0.7 0.0 0.0
16:35 5.3 -1.6 61 998.1 0.7 NW 0.7 0.0 0.0
16:36 5.3 -1.6 61 998.3 0.7 NW 0.7 0.0 0.0
16:38 5.2 -1.7 61 998.3 0.7 NE 0.7 0.0 0.0
16:39 5.2 -1.7 61 998.4 0.0 NE 0.7 0.0 0.0
16:40 5.2 -1.7 61 998.4 0.0 NE 0.7 0.0 0.0
16:41 5.2 -1.7 61 998.4 0.0 NE 0.7 0.0 0.0
16:42 5.1 -1.8 61 998.4 0.7 N 0.7 0.0 0.0
16:43 5.1 -1.8 61 998.4 0.7 N 0.7 0.0 0.0
16:44 5.1 -1.8 61 998.3 1.6 N 1.6 0.0 0.0
16:45 5.0 -1.9 61 998.0 1.6 N 2.2 0.0 0.0
16:46 5.0 -1.9 61 998.3 2.2 N 2.2 0.0 0.0
16:47 5.0 -1.9 61 998.2 2.2 N 2.2 0.0 0.0
16:48 4.8 -2.1 61 998.5 0.7 N 2.2 0.0 0.0
16:49 4.8 -2.1 61 998.6 0.7 NW 2.2 0.0 0.0
16:50 4.7 -2.2 61 998.3 0.7 N 2.2 0.0 0.0
16:51 4.6 -2.3 61 998.4 0.7 N 2.2 0.0 0.0
16:53 4.6 -2.3 61 998.3 0.0 NW 2.2 0.0 0.0
16:54 4.5 -2.4 61 998.3 0.7 NW 2.2 0.0 0.0
16:55 4.5 -2.4 61 998.4 0.7 NW 2.2 0.0 0.0
16:56 4.4 -2.5 61 998.4 1.6 NW 2.2 0.0 0.0
16:57 4.4 -2.5 61 998.4 1.6 N 1.6 0.0 0.0
16:58 4.3 -2.6 61 998.3 1.6 N 1.6 0.0 0.0
16:59 4.3 -2.6 61 998.3 1.6 N 1.6 0.0 0.0
17:00 4.3 -2.6 61 998.2 1.6 N 1.6 0.0 0.0
17:01 4.3 -2.6 61 998.2 1.6 N 1.6 0.0 0.0
17:02 4.3 -2.6 61 998.3 1.6 N 1.6 0.0 0.0
17:03 4.3 -2.6 61 998.3 1.6 N 1.6 0.0 0.0
17:04 4.3 -2.6 61 998.4 1.6 N 1.6 0.0 0.0
17:05 4.3 -2.6 61 998.5 1.6 N 1.6 0.0 0.0
17:06 4.3 -2.6 61 998.4 1.6 N 1.6 0.0 0.0
17:07 4.0 -2.8 61 998.4 0.7 N 1.6 0.0 0.0
17:09 3.9 -2.9 61 998.4 0.0 N 1.6 0.0 0.0
17:10 3.8 -3.0 61 998.2 0.7 N 1.6 0.0 0.0
17:11 3.8 -3.0 61 998.1 0.7 N 1.6 0.0 0.0
17:12 3.7 -3.1 61 998.2 0.7 N 1.6 0.0 0.0
17:13 3.7 -3.1 61 998.4 0.0 N 1.6 0.0 0.0
17:14 3.6 -3.2 61 998.1 0.0 N 1.6 0.0 0.0
17:15 3.6 -3.2 61 998.4 0.0 N 1.6 0.0 0.0
17:16 3.5 -3.3 61 998.2 0.7 N 0.7 0.0 0.0
17:17 3.5 -3.3 61 998.2 0.7 N 0.7 0.0 0.0
17:19 3.4 -3.4 61 998.2 0.7 N 0.7 0.0 0.0
17:20 3.4 -3.4 61 998.4 0.7 N 0.7 0.0 0.0
17:21 3.4 -3.2 62 998.2 0.0 N 0.7 0.0 0.0
17:22 3.3 -3.3 62 998.4 0.0 N 0.7 0.0 0.0
17:23 3.3 -3.3 62 998.4 0.0 N 0.7 0.0 0.0
17:24 3.3 -3.3 62 998.4 0.0 N 0.7 0.0 0.0
17:25 3.2 -3.4 62 998.3 0.0 N 0.7 0.0 0.0
17:26 3.2 -3.4 62 998.4 0.0 N 0.7 0.0 0.0
17:27 3.1 -3.5 62 998.6 0.0 N 0.7 0.0 0.0
17:28 3.0 -3.6 62 998.4 0.0 N 0.7 0.0 0.0
17:29 2.9 -3.7 62 998.6 0.0 N 0.7 0.0 0.0
17:30 2.9 -3.7 62 998.5 0.0 N 0.7 0.0 0.0
17:31 2.9 -3.7 62 998.6 0.0 N 0.0 0.0 0.0
17:33 2.8 -3.8 62 998.6 0.0 N 0.0 0.0 0.0
17:34 2.8 -3.8 62 998.7 0.0 N 0.0 0.0 0.0
17:35 2.7 -3.8 62 998.5 0.0 N 0.0 0.0 0.0
17:36 2.7 -3.6 63 998.6 0.0 N 0.0 0.0 0.0
17:37 2.7 -3.6 63 998.5 0.0 N 0.0 0.0 0.0
17:38 2.7 -3.6 63 998.6 0.0 N 0.0 0.0 0.0
17:39 2.7 -3.6 63 998.4 0.0 N 0.0 0.0 0.0
17:40 2.7 -3.6 63 998.6 0.0 N 0.0 0.0 0.0
17:41 2.6 -3.7 63 998.5 0.0 N 0.0 0.0 0.0
17:42 2.6 -3.7 63 998.7 0.0 N 0.0 0.0 0.0
17:43 2.5 -3.8 63 998.6 0.0 N 0.0 0.0 0.0
17:44 2.5 -3.8 63 998.5 0.0 N 0.0 0.0 0.0
17:45 2.4 -3.9 63 998.6 0.0 N 0.0 0.0 0.0
17:47 2.4 -3.9 63 998.6 0.7 N 0.7 0.0 0.0
17:48 2.3 -3.8 64 998.6 0.7 N 0.7 0.0 0.0
17:49 2.3 -3.8 64 998.7 0.7 N 0.7 0.0 0.0
17:50 2.3 -3.8 64 998.6 0.0 N 0.7 0.0 0.0
17:51 2.2 -3.9 64 998.8 0.0 NE 0.7 0.0 0.0
17:52 2.2 -3.9 64 998.8 0.0 NE 0.7 0.0 0.0
17:53 2.2 -3.9 64 998.5 0.0 NE 0.7 0.0 0.0
17:54 2.2 -3.9 64 998.3 0.0 NE 0.7 0.0 0.0
17:55 2.2 -3.9 64 998.4 0.7 NE 0.7 0.0 0.0
17:56 2.1 -4.0 64 998.6 0.0 NE 0.7 0.0 0.0
17:57 2.1 -3.8 65 998.4 0.7 NE 0.7 0.0 0.0
17:58 2.1 -3.8 65 998.2 0.7 NE 0.7 0.0 0.0
17:59 2.1 -3.8 65 998.5 0.7 NE 0.7 0.0 0.0
18:00 2.1 -3.8 65 998.4 0.7 NE 0.7 0.0 0.0
18:01 2.1 -3.8 65 998.5 0.0 W 0.7 0.0 0.0
18:03 2.1 -3.8 65 998.6 0.0 W 0.7 0.0 0.0
18:04 2.0 -3.9 65 998.4 0.0 W 0.7 0.0 0.0
18:05 2.0 -3.9 65 998.4 0.0 W 0.7 0.0 0.0
18:06 1.9 -4.0 65 998.4 0.0 W 0.7 0.0 0.0
18:07 1.8 -4.1 65 998.3 0.0 W 0.7 0.0 0.0
18:08 1.8 -4.1 65 998.4 0.0 W 0.7 0.0 0.0
18:09 1.8 -4.1 65 998.4 0.0 W 0.7 0.0 0.0
18:10 1.7 -4.2 65 998.5 0.0 W 0.0 0.0 0.0
18:11 1.7 -4.2 65 998.3 0.0 W 0.0 0.0 0.0
18:12 1.7 -4.2 65 998.3 0.0 W 0.0 0.0 0.0
18:13 1.7 -4.2 65 998.1 0.0 N 0.0 0.0 0.0
18:14 1.6 -4.3 65 998.3 1.6 N 1.6 0.0 0.0
18:15 1.6 -4.3 65 998.5 0.7 N 1.6 0.0 0.0
18:16 1.6 -4.3 65 998.1 0.7 N 1.6 0.0 0.0
18:18 1.5 -4.2 66 998.1 2.2 SW 2.2 0.0 0.0
18:19 1.5 -4.2 66 998.4 0.7 SW 2.2 0.0 0.0
18:20 1.4 -4.2 66 998.4 0.7 SW 2.2 0.0 0.0
18:21 1.4 -4.2 66 998.2 0.0 SW 2.2 0.0 0.0
18:22 1.3 -4.3 66 998.3 0.0 SW 2.2 0.0 0.0
18:23 1.3 -4.3 66 998.3 0.0 SW 2.2 0.0 0.0
18:24 1.3 -4.3 66 998.3 0.0 SW 2.2 0.0 0.0
18:25 1.2 -4.4 66 998.2 1.6 NE 2.2 0.0 0.0
18:26 1.2 -4.4 66 998.3 1.6 NE 2.2 0.0 0.0
18:27 1.2 -4.4 66 998.3 1.6 NE 2.2 0.0 0.0
18:28 1.2 -4.4 66 998.3 1.6 NE 2.2 0.0 0.0
18:29 1.1 -4.5 66 998.2 0.7 NE 2.2 0.0 0.0
18:30 1.1 -4.5 66 998.3 0.7 NE 2.2 0.0 0.0
18:31 1.1 -4.5 66 998.5 0.7 NE 2.2 0.0 0.0
18:32 1.1 -4.3 67 998.2 0.0 NE 2.2 0.0 0.0
18:33 1.1 -4.3 67 998.4 0.7 NE 2.2 0.0 0.0
18:34 1.1 -4.3 67 998.4 0.0 NE 2.2 0.0 0.0
18:36 1.1 -4.3 67 998.5 0.0 NE 1.6 0.0 0.0
18:37 1.1 -4.3 67 998.4 1.6 NE 1.6 0.0 0.0
18:38 1.1 -4.1 68 998.2 1.6 NE 1.6 0.0 0.0
18:39 1.1 -4.1 68 998.3 1.6 NE 1.6 0.0 0.0
18:40 1.1 -4.1 68 998.3 0.7 NE 1.6 0.0 0.0
18:41 1.1 -4.1 68 998.4 0.7 NE 1.6 0.0 0.0
18:42 1.2 -4.0 68 998.4 0.7 NE 1.6 0.0 0.0
18:43 1.2 -4.0 68 998.5 0.7 NE 1.6 0.0 0.0
18:44 1.2 -3.8 69 998.6 1.6 NE 1.6 0.0 0.0
18:45 1.2 -3.8 69 998.5 0.7 NW 1.6 0.0 0.0
18:46 1.2 -3.8 69 998.3 0.0 NW 1.6 0.0 0.0
18:47 1.2 -3.8 69 998.6 0.0 NW 1.6 0.0 0.0
18:48 1.1 -3.9 69 998.5 0.0 NW 1.6 0.0 0.0
18:49 1.1 -3.9 69 998.4 0.0 NW 1.6 0.0 0.0
18:50 1.0 -4.0 69 998.5 0.0 NW 1.6 0.0 0.0
18:52 1.0 -4.0 69 998.6 0.0 NW 1.6 0.0 0.0
18:53 1.0 -4.2 68 998.5 0.0 NW 1.6 0.0 0.0
18:54 0.9 -4.3 68 998.6 0.0 NW 1.6 0.0 0.0
18:55 0.9 -4.3 68 998.5 0.0 NW 0.7 0.0 0.0
18:56 0.9 -4.3 68 998.6 0.0 NW 0.0 0.0 0.0
18:57 0.9 -4.3 68 998.7 0.0 NW 0.0 0.0 0.0
18:58 0.8 -4.4 68 998.6 0.0 NW 0.0 0.0 0.0
18:59 0.8 -4.4 68 998.7 0.7 NW 0.7 0.0 0.0
19:00 0.8 -4.4 68 998.4 0.7 NW 0.7 0.0 0.0
19:01 0.8 -4.4 68 998.4 0.7 NW 0.7 0.0 0.0
19:02 0.8 -4.4 68 998.7 0.7 NW 0.7 0.0 0.0
19:03 0.8 -4.4 68 998.4 0.7 NW 0.7 0.0 0.0
19:04 0.8 -4.4 68 998.7 0.7 NW 0.7 0.0 0.0
19:05 0.8 -4.4 68 998.5 0.7 NW 0.7 0.0 0.0
19:06 0.6 -4.6 68 998.6 0.0 NE 0.7 0.0 0.0
19:08 0.6 -4.6 68 998.6 0.0 NE 0.7 0.0 0.0
19:09 0.5 -4.7 68 998.3 0.0 NE 0.7 0.0 0.0
19:10 0.5 -4.7 68 998.5 0.7 NE 0.7 0.0 0.0
19:11 0.5 -4.7 68 998.6 0.7 NE 0.7 0.0 0.0
19:12 0.5 -4.5 69 998.4 0.7 NE 0.7 0.0 0.0
19:13 0.5 -4.5 69 998.7 0.7 NE 0.7 0.0 0.0
19:14 0.5 -4.5 69 998.6 0.7 NE 0.7 0.0 0.0
19:15 0.5 -4.5 69 998.8 0.7 NE 0.7 0.0 0.0
19:16 0.6 -4.4 69 998.7 0.0 NE 0.7 0.0 0.0
19:17 0.6 -4.2 70 998.5 0.0 NE 0.7 0.0 0.0
19:19 0.6 -4.2 70 998.3 0.7 NE 0.7 0.0 0.0
19:20 0.6 -4.2 70 998.6 0.0 NE 0.7 0.0 0.0
19:21 0.7 -4.1 70 998.6 0.0 NE 0.7 0.0 0.0
19:22 0.7 -4.1 70 998.6 0.7 NE 0.7 0.0 0.0
19:23 0.7 -4.1 70 998.5 0.0 NE 0.7 0.0 0.0
19:24 0.8 -4.0 70 998.6 0.0 NE 0.7 0.0 0.0
19:25 0.8 -4.0 70 998.7 0.0 NE 0.7 0.0 0.0
19:26 0.8 -4.0 70 998.8 0.0 NE 0.7 0.0 0.0
19:27 0.8 -4.0 70 998.7 0.7 NE 0.7 0.0 0.0
19:28 0.8 -4.0 70 998.7 0.7 NE 0.7 0.0 0.0
19:29 0.8 -4.0 70 998.7 0.7 NE 0.7 0.0 0.0
19:30 0.8 -3.8 71 998.7 0.0 NE 0.7 0.0 0.0
19:31 0.8 -3.8 71 998.7 0.0 NE 0.7 0.0 0.0
19:32 0.8 -3.8 71 998.7 0.0 NE 0.7 0.0 0.0
19:33 0.8 -3.8 71 998.8 0.0 NE 0.7 0.0 0.0
19:34 0.9 -3.8 71 998.8 0.0 NE 0.7 0.0 0.0
19:36 0.9 -3.8 71 998.6 0.7 NE 0.7 0.0 0.0
19:37 0.9 -3.8 71 998.7 0.7 S 0.7 0.0 0.0
19:38 1.0 -3.7 71 998.6 0.7 S 0.7 0.0 0.0
19:39 1.0 -3.7 71 998.7 0.7 S 0.7 0.0 0.0
19:40 1.0 -3.7 71 998.8 0.7 SE 0.7 0.0 0.0
19:41 1.0 -3.7 71 998.8 0.7 SE 0.7 0.0 0.0
19:42 1.0 -3.7 71 998.6 0.7 SE 0.7 0.0 0.0
19:43 0.9 -3.8 71 998.8 0.7 SE 0.7 0.0 0.0
19:44 0.9 -3.8 71 998.8 0.0 SE 0.7 0.0 0.0
19:45 0.8 -3.8 71 998.7 0.0 SE 0.7 0.0 0.0
19:46 0.8 -3.8 71 998.6 0.0 SE 0.7 0.0 0.0
19:47 0.8 -3.8 71 998.7 0.0 SE 0.7 0.0 0.0
19:48 0.8 -3.8 71 998.8 0.0 SE 0.7 0.0 0.0
19:49 0.8 -3.8 71 998.9 0.0 SE 0.7 0.0 0.0
19:50 0.7 -4.1 70 998.7 0.7 S 0.7 0.0 0.0
19:52 0.7 -4.1 70 998.8 0.7 S 0.7 0.0 0.0
19:53 0.7 -4.1 70 998.8 0.7 NE 0.7 0.0 0.0
19:54 0.7 -4.1 70 998.7 0.7 NE 0.7 0.0 0.0
19:55 0.6 -4.2 70 998.8 0.0 NE 0.7 0.0 0.0
19:56 0.6 -4.2 70 998.7 0.0 NE 0.7 0.0 0.0
19:57 0.6 -4.2 70 998.7 0.0 NE 0.7 0.0 0.0
19:58 0.6 -4.2 70 998.8 0.0 NE 0.7 0.0 0.0
19:59 0.6 -4.2 70 998.8 0.0 NE 0.7 0.0 0.0
20:00 0.5 -4.3 70 998.8 0.7 NE 0.7 0.0 0.0
20:01 0.5 -4.3 70 998.8 0.0 S 0.7 0.0 0.0
20:02 0.5 -4.3 70 998.8 0.0 S 0.7 0.0 0.0
20:03 0.5 -4.3 70 998.8 0.7 S 0.7 0.0 0.0
20:08 0.4 -4.4 70 998.7 1.6 S 1.6 0.0 0.0
20:09 0.4 -4.4 70 998.7 1.6 S 1.6 0.0 0.0
20:10 0.4 -4.4 70 999.0 0.7 S 1.6 0.0 0.0
20:11 0.4 -4.4 70 998.8 0.7 NE 1.6 0.0 0.0
20:12 0.4 -4.4 70 998.7 0.7 NE 1.6 0.0 0.0
20:13 0.4 -4.4 70 998.8 0.7 NE 1.6 0.0 0.0
20:14 0.4 -4.2 71 998.8 0.0 NE 1.6 0.0 0.0
20:15 0.4 -4.2 71 998.7 0.7 NE 1.6 0.0 0.0
20:16 0.4 -4.2 71 998.7 0.7 NE 1.6 0.0 0.0
20:17 0.4 -4.2 71 998.9 0.7 NE 1.6 0.0 0.0
20:18 0.4 -4.2 71 998.9 0.0 NE 1.6 0.0 0.0
20:19 0.4 -4.2 71 998.8 0.0 S 1.6 0.0 0.0
20:20 0.4 -4.2 71 998.7 0.0 S 0.7 0.0 0.0
20:22 0.4 -4.2 71 998.6 0.0 S 0.7 0.0 0.0
20:23 0.4 -4.2 71 998.8 0.0 S 0.7 0.0 0.0
20:24 0.4 -4.2 71 998.9 0.0 S 0.7 0.0 0.0
20:25 0.4 -4.2 71 998.7 0.0 S 0.7 0.0 0.0
20:26 0.4 -4.2 71 998.9 0.0 S 0.7 0.0 0.0
20:27 0.4 -4.2 71 998.6 0.0 S 0.7 0.0 0.0
20:28 0.4 -4.2 71 998.5 0.0 S 0.0 0.0 0.0
20:29 0.4 -4.2 71 998.8 0.7 S 0.7 0.0 0.0
20:30 0.4 -4.2 71 998.8 0.7 S 0.7 0.0 0.0
20:31 0.4 -4.2 71 998.9 0.7 S 0.7 0.0 0.0
20:32 0.4 -4.2 71 998.8 0.7 S 0.7 0.0 0.0
20:33 0.4 -4.2 71 998.9 0.0 S 0.7 0.0 0.0
20:34 0.4 -4.2 71 998.6 0.0 S 0.7 0.0 0.0
20:36 0.4 -4.2 71 998.9 0.0 S 0.7 0.0 0.0
20:37 0.4 -4.2 71 998.7 0.7 S 0.7 0.0 0.0
20:38 0.4 -4.2 71 998.6 0.7 NE 0.7 0.0 0.0
20:39 0.4 -4.2 71 998.9 0.7 N 0.7 0.0 0.0
20:40 0.4 -4.2 71 998.9 0.7 N 0.7 0.0 0.0
20:41 0.4 -4.2 71 998.8 0.7 SSE 0.7 0.0 0.0
20:42 0.4 -4.2 71 998.8 0.0 S 0.7 0.0 0.0
20:43 0.4 -4.2 71 998.8 1.6 S 1.6 0.0 0.0
20:44 0.4 -4.2 71 998.7 0.7 S 1.6 0.0 0.0
20:45 0.4 -4.2 71 998.7 0.7 SE 1.6 0.0 0.0
20:46 0.4 -4.2 71 998.7 0.7 S 1.6 0.0 0.0
20:47 0.4 -4.2 71 998.8 0.7 NE 1.6 0.0 0.0
20:48 0.4 -4.2 71 998.8 0.7 NE 1.6 0.0 0.0
20:49 0.4 -4.2 71 998.7 0.7 N 1.6 0.0 0.0
20:50 0.4 -4.2 71 998.8 0.7 NNE 1.6 0.0 0.0
20:52 0.5 -4.1 71 998.5 0.7 N 1.6 0.0 0.0
20:53 0.4 -4.2 71 998.8 0.7 NW 0.7 0.0 0.0
20:54 0.5 -4.1 71 998.7 0.7 NW 0.7 0.0 0.0
20:55 0.5 -4.1 71 998.7 0.7 NW 0.7 0.0 0.0
20:56 0.5 -4.1 71 998.4 0.7 SW 0.7 0.0 0.0
20:57 0.5 -4.1 71 998.5 0.7 N 0.7 0.0 0.0
20:58 0.5 -4.1 71 998.8 0.7 N 0.7 0.0 0.0
20:59 0.5 -4.1 71 998.8 0.7 N 0.7 0.0 0.0
21:00 0.5 -4.1 71 998.6 0.7 NW 0.7 0.0 0.0
21:01 0.5 -4.1 71 998.5 0.7 NW 0.7 0.0 0.0
21:02 0.5 -4.1 71 998.6 0.7 NW 0.7 0.0 0.0
21:03 0.5 -4.1 71 998.6 0.7 NW 0.7 0.0 0.0
21:04 0.5 -4.1 71 998.6 0.7 NW 0.7 0.0 0.0
21:05 0.5 -4.1 71 998.7 0.7 NW 0.7 0.0 0.0
21:06 0.5 -4.1 71 998.5 0.7 NW 0.7 0.0 0.0
21:07 0.6 -3.9 72 998.6 0.7 WNW 0.7 0.0 0.0
21:09 0.7 -3.8 72 998.7 0.7 NW 0.7 0.0 0.0
21:10 0.7 -3.8 72 998.5 0.7 NW 0.7 0.0 0.0
21:11 0.7 -3.8 72 998.6 0.7 NW 0.7 0.0 0.0
21:12 0.7 -3.8 72 998.6 0.7 NW 0.7 0.0 0.0
21:13 0.7 -3.8 72 998.6 0.7 NW 0.7 0.0 0.0
21:14 0.7 -3.8 72 998.5 0.7 NW 0.7 0.0 0.0
21:15 0.7 -3.8 72 998.6 0.7 NW 0.7 0.0 0.0
21:16 0.7 -3.8 72 998.6 0.7 NW 0.7 0.0 0.0
21:17 0.8 -3.7 72 998.3 0.7 W 0.7 0.0 0.0
21:18 0.8 -3.7 72 998.6 0.7 NW 0.7 0.0 0.0
21:19 0.8 -3.7 72 998.5 0.7 S 0.7 0.0 0.0
21:20 0.8 -3.7 72 998.6 0.7 W 0.7 0.0 0.0
21:21 0.8 -3.7 72 998.4 0.7 NW 0.7 0.0 0.0
21:22 0.8 -3.7 72 998.7 0.7 S 1.6 0.0 0.0
21:23 0.8 -3.7 72 998.5 0.7 NW 1.6 0.0 0.0
21:24 0.8 -3.7 72 998.4 0.7 S 1.6 0.0 0.0
21:25 0.8 -3.7 72 998.7 0.7 NW 1.6 0.0 0.0
21:26 0.8 -3.7 72 998.4 0.7 E 1.6 0.0 0.0
21:27 0.8 -3.7 72 998.4 0.7 NW 1.6 0.0 0.0
21:28 0.8 -3.7 72 998.5 0.7 NW 1.6 0.0 0.0
21:29 0.8 -3.7 72 998.5 0.7 NW 1.6 0.0 0.0
21:30 0.8 -3.7 72 998.4 1.6 NW 1.6 0.0 0.0
21:31 0.8 -3.7 72 998.4 0.7 W 1.6 0.0 0.0
21:32 0.9 -3.6 72 998.5 1.6 NE 1.6 0.0 0.0
21:33 0.9 -3.6 72 998.2 1.6 NE 1.6 0.0 0.0
21:35 0.9 -3.6 72 998.2 0.7 NW 1.6 0.0 0.0
21:36 0.9 -3.6 72 998.3 1.6 NW 1.6 0.0 0.0
21:38 1.0 -3.5 72 998.4 0.7 W 1.6 0.0 0.0
21:39 1.0 -3.5 72 998.6 0.7 SW 1.6 0.0 0.0
21:40 1.0 -3.5 72 998.4 0.7 NW 1.6 0.0 0.0
21:41 1.0 -3.5 72 998.4 0.7 SE 1.6 0.0 0.0
21:44 1.1 -3.4 72 998.2 0.7 N 1.6 0.0 0.0
21:45 1.1 -3.4 72 998.4 0.7 NW 1.6 0.0 0.0
21:46 1.1 -3.4 72 998.3 0.7 S 1.6 0.0 0.0
21:48 1.1 -3.4 72 998.4 0.7 S 1.6 0.0 0.0
21:49 1.2 -3.3 72 998.4 1.6 N 1.6 0.0 0.0
21:50 1.2 -3.3 72 998.4 0.7 E 1.6 0.0 0.0
21:51 1.2 -3.3 72 998.3 1.6 S 1.6 0.0 0.0
21:52 1.2 -3.3 72 998.3 1.6 S 1.6 0.0 0.0
21:53 1.2 -3.3 72 998.3 1.6 S 1.6 0.0 0.0
21:54 1.2 -3.3 72 998.3 1.6 SW 1.6 0.0 0.0
21:55 1.3 -3.2 72 998.4 1.6 S 1.6 0.0 0.0
21:56 1.3 -3.2 72 998.4 0.7 S 1.6 0.0 0.0
21:58 1.3 -3.2 72 998.2 1.6 S 1.6 0.0 0.0
21:59 1.3 -3.2 72 998.4 3.1 SE 3.1 0.0 0.0
22:00 1.3 -3.2 72 998.4 3.1 S 3.1 0.0 0.0
22:01 1.3 -3.2 72 998.3 3.1 SE 3.1 0.0 0.0
22:02 1.3 -3.2 72 998.3 3.1 SSE 3.1 0.0 0.0
22:03 1.3 -3.2 72 998.3 3.1 SSE 3.1 0.0 0.0
22:04 1.4 -3.1 72 998.4 3.1 S 3.1 0.0 0.0
22:05 1.4 -3.1 72 998.3 3.1 SE 3.1 0.0 0.0
22:06 1.4 -3.1 72 998.4 3.1 S 3.1 0.0 0.0
22:07 1.4 -3.1 72 998.1 3.1 SE 3.1 0.0 0.0
22:08 1.4 -3.1 72 998.3 3.1 SSE 3.1 0.0 0.0
22:09 1.4 -3.1 72 998.3 3.1 S 3.1 0.0 0.0
22:10 1.4 -3.1 72 998.3 3.8 S 3.8 0.0 0.0
22:11 1.4 -3.1 72 998.2 3.1 S 3.8 0.0 0.0
22:12 1.5 -3.0 72 998.2 3.1 SSE 3.8 0.0 0.0
22:13 1.5 -3.0 72 998.3 3.1 NE 3.8 0.0 0.0
22:14 1.5 -3.0 72 998.1 3.1 E 3.8 0.0 0.0
22:15 1.6 -2.9 72 998.3 3.1 E 3.8 0.0 0.0
22:17 1.6 -2.9 72 998.4 3.8 S 4.5 0.0 0.0
22:18 1.6 -2.9 72 998.4 3.8 SE 4.5 0.0 0.0
22:19 1.6 -2.9 72 998.2 3.8 SE 4.5 0.0 0.0
22:20 1.7 -2.8 72 998.1 3.8 SW 4.5 0.0 0.0
22:21 1.7 -2.8 72 998.1 3.1 S 4.5 0.0 0.0
22:22 1.7 -2.8 72 998.2 3.1 SE 4.5 0.0 0.0
22:23 1.7 -2.8 72 998.3 4.5 S 4.5 0.0 0.0
22:24 1.8 -2.7 72 998.2 3.8 S 4.5 0.0 0.0
22:25 1.8 -2.7 72 998.1 6.0 S 6.0 0.0 0.0
22:26 1.8 -2.7 72 998.3 6.0 SSE 6.0 0.0 0.0
22:27 1.9 -2.6 72 998.1 5.4 S 6.0 0.0 0.0
22:28 1.9 -2.6 72 998.2 5.4 SE 6.0 0.0 0.0
22:29 2.0 -2.3 73 998.1 6.0 S 6.0 0.0 0.0
22:30 2.0 -2.3 73 998.3 7.6 S 7.6 0.0 0.0
22:31 2.0 -2.3 73 998.2 6.9 SSE 7.6 0.0 0.0
22:32 2.1 -2.2 73 998.2 6.0 SE 7.6 0.0 0.0
22:33 2.2 -2.1 73 998.0 5.4 S 7.6 0.0 0.0
22:34 2.2 -2.1 73 998.0 5.4 S 7.6 0.0 0.0
22:36 2.3 -2.0 73 998.1 6.0 SW 7.6 0.0 0.0
22:37 2.3 -2.0 73 998.1 5.4 SE 7.6 0.0 0.0
22:38 2.3 -2.0 73 998.2 5.4 S 7.6 0.0 0.0
22:39 2.3 -2.0 73 997.9 6.0 S 7.6 0.0 0.0
22:40 2.4 -1.9 73 998.0 6.0 SSE 6.9 0.0 0.0
22:41 2.4 -1.9 73 998.1 4.5 S 6.0 0.0 0.0
22:42 2.4 -1.9 73 998.0 5.4 SE 6.0 0.0 0.0
22:43 2.4 -1.9 73 997.9 5.4 S 6.0 0.0 0.0
22:44 2.4 -1.9 73 997.9 6.0 E 6.0 0.0 0.0
22:45 2.5 -2.0 72 998.0 4.5 S 6.0 0.0 0.0
22:46 2.5 -2.0 72 998.0 3.8 S 6.0 0.0 0.0
22:47 2.5 -2.0 72 997.9 4.5 SE 6.0 0.0 0.0
22:48 2.5 -2.0 72 998.0 4.5 SE 6.0 0.0 0.0
22:49 2.5 -2.0 72 998.1 5.4 S 6.0 0.0 0.0
22:50 2.5 -2.0 72 998.1 3.8 S 6.0 0.0 0.0
22:51 2.5 -2.0 72 997.9 3.8 S 6.0 0.0 0.0
22:52 2.5 -2.0 72 997.8 3.8 S 6.0 0.0 0.0
22:53 2.5 -2.0 72 997.7 5.4 SSE 6.0 0.0 0.0
22:55 2.5 -2.0 72 997.9 5.4 S 5.4 0.0 0.0
22:56 2.6 -1.9 72 998.1 5.4 S 5.4 0.0 0.0
22:57 2.6 -1.9 72 997.8 4.5 SE 5.4 0.0 0.0
22:58 2.6 -1.9 72 998.1 3.8 SE 5.4 0.0 0.0
22:59 2.6 -1.9 72 997.6 6.0 S 6.0 0.0 0.0
23:00 2.6 -1.9 72 997.6 6.0 S 6.0 0.0 0.0
23:01 2.6 -1.9 72 997.9 6.0 S 6.0 0.0 0.0
23:02 2.6 -1.9 72 997.7 6.0 S 6.0 0.0 0.0
23:03 2.6 -1.9 72 997.8 6.0 S 6.0 0.0 0.0
23:04 2.6 -1.9 72 997.8 6.0 S 6.0 0.0 0.0
23:05 2.6 -1.9 72 997.7 6.0 S 6.0 0.0 0.0
23:06 2.7 -1.8 72 997.5 6.0 SSW 6.0 0.0 0.0
23:07 2.7 -1.8 72 997.7 4.5 S 6.0 0.0 0.0
23:08 2.7 -1.8 72 997.7 5.4 SE 6.0 0.0 0.0
23:09 2.8 -1.7 72 997.8 5.4 SE 6.0 0.0 0.0
23:10 2.8 -1.7 72 997.6 6.0 SE 6.0 0.0 0.0
23:11 2.9 -1.6 72 997.4 6.9 S 6.9 0.0 0.0
23:12 2.9 -1.6 72 997.7 6.9 SE 6.9 0.0 0.0
23:14 3.0 -1.5 72 997.5 6.9 SE 8.3 0.0 0.0
23:15 3.0 -1.5 72 997.6 7.6 S 8.3 0.0 0.0
23:16 3.0 -1.5 72 997.7 6.9 SE 8.3 0.0 0.0
23:18 3.1 -1.5 72 997.6 5.4 S 8.3 0.0 0.0
23:19 3.1 -1.5 72 997.6 7.6 S 8.3 0.0 0.0
23:20 3.2 -1.4 72 997.5 6.9 S 8.3 0.0 0.0
23:22 3.2 -1.4 72 997.5 6.0 S 8.3 0.0 0.0
23:23 3.3 -1.3 72 997.7 8.3 S 8.3 0.0 0.0
23:24 3.3 -1.3 72 997.5 8.3 S 8.3 0.0 0.0
23:25 3.3 -1.3 72 997.4 6.9 SE 8.3 0.0 0.0
23:26 3.3 -1.3 72 997.5 6.9 S 8.3 0.0 0.0
23:27 3.3 -1.3 72 997.6 5.4 S 8.3 0.0 0.0
23:28 3.3 -1.3 72 997.6 5.4 S 8.3 0.0 0.0
23:29 3.4 -1.2 72 997.6 6.0 S 8.3 0.0 0.0
23:30 3.4 -1.2 72 997.3 5.4 S 8.3 0.0 0.0
23:31 3.4 -1.2 72 997.4 5.4 SE 8.3 0.0 0.0
23:32 3.4 -1.2 72 997.4 7.6 S 8.3 0.0 0.0
23:33 3.4 -1.2 72 997.4 7.6 SE 8.3 0.0 0.0
23:34 3.5 -1.1 72 997.3 6.9 SE 8.3 0.0 0.0
23:35 3.5 -1.1 72 997.3 6.9 S 7.6 0.0 0.0
23:36 3.5 -1.1 72 997.5 6.9 S 7.6 0.0 0.0
23:37 3.5 -1.1 72 997.3 6.9 S 7.6 0.0 0.0
23:38 3.5 -1.1 72 997.4 7.6 S 7.6 0.0 0.0
23:39 3.6 -1.0 72 997.2 6.0 SE 7.6 0.0 0.0
23:41 3.6 -1.0 72 997.4 7.6 SE 7.6 0.0 0.0
23:42 3.6 -1.0 72 997.2 6.9 SE 7.6 0.0 0.0
23:43 3.7 -0.9 72 997.2 7.6 S 7.6 0.0 0.0
23:44 3.7 -0.9 72 997.4 7.6 S 7.6 0.0 0.0
23:45 3.7 -0.9 72 997.4 7.6 S 7.6 0.0 0.0
23:46 3.7 -0.9 72 997.0 8.3 S 8.3 0.0 0.0
23:47 3.8 -0.8 72 997.2 8.3 SE 8.3 0.0 0.0
23:48 3.8 -0.8 72 997.4 6.9 SSE 8.3 0.0 0.0
23:49 3.8 -0.8 72 997.3 6.9 S 8.3 0.0 0.0
23:50 3.8 -0.8 72 997.3 6.0 SSE 8.3 0.0 0.0
23:51 3.9 -0.7 72 997.2 6.9 SSE 8.3 0.0 0.0
23:52 3.9 -0.9 71 997.3 7.6 S 8.3 0.0 0.0
23:53 3.9 -0.9 71 997.2 6.0 SE 8.3 0.0 0.0
23:54 3.9 -0.9 71 997.2 8.3 S 8.3 0.0 0.0
23:55 3.9 -0.9 71 997.2 6.9 SE 8.3 0.0 0.0
23:56 3.9 -0.9 71 997.3 8.3 S 8.3 0.0 0.0
23:57 3.9 -0.9 71 997.3 7.6 S 8.3 0.0 0.0
23:59 4.0 -0.8 71 997.2 7.6 SE 8.3 0.0 0.0

 

 

UK - WEATHER STATION TOPSITES - UK World Weather Websites

Copyright © Carnkie Weather 2009 - 2021.